Darstellungsparameter: Aktuell verwendete Einstellungen:
Skalierung der Graphiken ... ?
xyx+y,   Skalierungsfaktor:      Skalierung: Modus: x, Faktor: 1
Darstellungszeitraum ... ?
Vom - - bis: - -   Zeitraum: 25.04.2017 - 24.04.2020
Min/Max/Avg-Anzeige ... ?
Zeige MMA aktuell
Zeige MMA Monat
Zeige MMA alles
Zeige --A aktuell
Zeige --A Monat
Zeige --A alles
Keine MMA-Anzeige
MMA:
Keine MMA-Graphiken
MMA-Basis: 25.04.2017 - 24.04.2020
Quicknavigation für Darstellung... ?
Tage:      1T, 2T, 3T, 5T -1T -2T -3T -5T +1T +2T +3T +5T
Wochen: 1W, 2W, 3W -1W -2W -3W +1W +2W +3W
Monate: 1M, 3M, 6M -1M -3M -6M +1M +3M +6M
Jahre:    1J, 3J, 5J, 10J -1J -3J -5J -10J +1J +3J +5J +10J
Nutze für die Darstellung ... ?
Originaldaten oder ...
Mittelwerte Minima Maxima auf...
Stundenbasis Tagesbasis Wochenbasis
Monatsbasis Jahresbasis      Datenbasis: Mittelwerte auf Tagesbasis
Darstellen als:
Statistik (Auto) Statistik J:M      Darstellung:
Zur Graphik,    zurück zur Übersicht aller Sensoren.
 
Tabellarische Datenbersicht: ?
 
Sensor: Nr:Datum:Temp:Feuchte:
Aussen-T/F 1 25-04-2017 00:00:00 7.13193 C 20.0000 %
2 26-04-2017 00:00:00 7.62583 C 20.1500 %
3 27-04-2017 00:00:00 7.74917 C 23.9083 %
4 28-04-2017 00:00:00 6.26083 C 27.3167 %
5 29-04-2017 00:00:00 9.68667 C 30.5750 %
6 30-04-2017 00:00:00 11.3975 C 20.0000 %
7 01-05-2017 00:00:00 9.75083 C 27.4250 %
8 02-05-2017 00:00:00 8.5825 C 45.3500 %
9 03-05-2017 00:00:00 10.7175 C 39.5000 %
10 04-05-2017 00:00:00 11.94833 C 30.7750 %
11 05-05-2017 00:00:00 12.685 C 23.2667 %
12 06-05-2017 00:00:00 13.30333 C 33.1667 %
13 07-05-2017 00:00:00 12.8375 C 37.3083 %
14 08-05-2017 00:00:00 9.69083 C 26.5500 %
15 09-05-2017 00:00:00 11.87667 C 24.9000 %
16 10-05-2017 00:00:00 11.33833 C 26.9167 %
17 11-05-2017 00:00:00 14.63833 C 25.1750 %
18 12-05-2017 00:00:00 16.395 C 30.7500 %
19 13-05-2017 00:00:00 18.05917 C 28.5167 %
20 14-05-2017 00:00:00 16.575 C 24.9333 %
21 15-05-2017 00:00:00 16.65 C 33.9583 %
22 16-05-2017 00:00:00 20.58167 C 20.0000 %
23 17-05-2017 00:00:00 21.33 C 20.8417 %
24 18-05-2017 00:00:00 18.02917 C 26.7583 %
25 19-05-2017 00:00:00 13.17667 C 46.5833 %
Sensor: Nr:Datum:Temp:Feuchte:
Aussen-T/F 26 20-05-2017 00:00:00 12.655 C 37.4083 %
27 21-05-2017 00:00:00 14.64917 C 29.2750 %
28 22-05-2017 00:00:00 17.3675 C 27.8667 %
29 23-05-2017 00:00:00 19.65167 C 23.7417 %
30 24-05-2017 00:00:00 17.405 C 20.4000 %
31 25-05-2017 00:00:00 20.29 C 21.8917 %
32 26-05-2017 00:00:00 19.73833 C 24.5250 %
33 27-05-2017 00:00:00 22.6075 C 24.8667 %
34 28-05-2017 00:00:00 21.81583 C 24.8250 %
35 29-05-2017 00:00:00 24.57833 C 34.4500 %
36 30-05-2017 00:00:00 22.94833 C 21.0500 %
37 31-05-2017 00:00:00 20.15917 C 21.0333 %
38 01-06-2017 00:00:00 20.24833 C 23.6500 %
39 02-06-2017 00:00:00 19.48083 C 25.5083 %
40 03-06-2017 00:00:00 19.46417 C 36.0000 %
41 04-06-2017 00:00:00 16.96583 C 37.9333 %
42 05-06-2017 00:00:00 17.975 C 34.7083 %
43 06-06-2017 00:00:00 16.04667 C 23.7250 %
44 07-06-2017 00:00:00 14.48333 C 20.5500 %
45 08-06-2017 00:00:00 19.25 C 21.2917 %
46 09-06-2017 00:00:00 18.0925 C 23.5250 %
47 10-06-2017 00:00:00 19.44 C 25.5417 %
48 11-06-2017 00:00:00 21.575 C 23.5750 %
49 12-06-2017 00:00:00 22.1675 C 20.1333 %
50 13-06-2017 00:00:00 19.81833 C 20.2667 %
Sensor: Nr:Datum:Temp:Feuchte:
Aussen-T/F 51 14-06-2017 00:00:00 20.985 C 24.1917 %
52 15-06-2017 00:00:00 22.28333 C 21.9500 %
53 16-06-2017 00:00:00 20.18667 C 20.0000 %
54 17-06-2017 00:00:00 18.07917 C 20.4667 %
55 18-06-2017 00:00:00 23.58667 C 21.1333 %
56 19-06-2017 00:00:00 24.0825 C 23.3000 %
57 20-06-2017 00:00:00 25.57083 C 21.0333 %
58 21-06-2017 00:00:00 27.36167 C 20.0000 %
59 22-06-2017 00:00:00 24.04083 C 25.6833 %
60 23-06-2017 00:00:00 23.645 C 21.6583 %
61 24-06-2017 00:00:00 21.56417 C 21.1667 %
62 25-06-2017 00:00:00 20.95 C 20.0000 %
63 26-06-2017 00:00:00 23.18333 C 20.0000 %
64 27-06-2017 00:00:00 19.20417 C 25.8000 %
65 28-06-2017 00:00:00 20.19167 C 37.8250 %
66 29-06-2017 00:00:00 18.5125 C 27.5083 %
67 30-06-2017 00:00:00 18.34833 C 22.5167 %
68 01-07-2017 00:00:00 16.22083 C 30.4250 %
69 02-07-2017 00:00:00 16.92 C 32.0250 %
70 03-07-2017 00:00:00 18.83333 C 27.3833 %
71 04-07-2017 00:00:00 21.9375 C 21.4833 %
72 05-07-2017 00:00:00 23.425 C 23.6833 %
73 06-07-2017 00:00:00 22.78417 C 24.7917 %
74 07-07-2017 00:00:00 24.54667 C 34.9667 %
75 08-07-2017 00:00:00 24.04167 C 22.1750 %
Sensor: Nr:Datum:Temp:Feuchte:
Aussen-T/F 76 09-07-2017 00:00:00 23.87667 C 21.6750 %
77 10-07-2017 00:00:00 19.995 C 36.4250 %
78 11-07-2017 00:00:00 19.97417 C 25.9167 %
79 12-07-2017 00:00:00 17.8025 C 27.7583 %
80 13-07-2017 00:00:00 17.10583 C 27.2083 %
81 14-07-2017 00:00:00 16.94333 C 24.9917 %
82 15-07-2017 00:00:00 17.56583 C 24.2833 %
83 16-07-2017 00:00:00 19.83833 C 21.7500 %
84 17-07-2017 00:00:00 22.11583 C 25.7917 %
85 18-07-2017 00:00:00 23.18917 C 26.1500 %
86 19-07-2017 00:00:00 24.29083 C 22.7083 %
87 20-07-2017 00:00:00 22.56083 C 28.0583 %
88 21-07-2017 00:00:00 21.25917 C 21.7417 %
89 22-07-2017 00:00:00 22.86083 C 31.7667 %
90 23-07-2017 00:00:00 19.16417 C 32.9917 %
91 24-07-2017 00:00:00 15.17 C 34.9083 %
92 25-07-2017 00:00:00 14.17917 C 53.8250 %
93 26-07-2017 00:00:00 17.7925 C 34.8833 %
94 27-07-2017 00:00:00 19.165 C 34.9917 %
95 28-07-2017 00:00:00 17.4625 C 30.7500 %
96 29-07-2017 00:00:00 20.93333 C 25.8500 %
97 30-07-2017 00:00:00 23.44917 C 24.9833 %
98 31-07-2017 00:00:00 21.3325 C 25.8250 %
99 01-08-2017 00:00:00 20.18333 C 47.5000 %
100 02-08-2017 00:00:00 22.01833 C 35.3417 %
Sensor: Nr:Datum:Temp:Feuchte:
Aussen-T/F 101 03-08-2017 00:00:00 21.82833 C 28.1250 %
102 04-08-2017 00:00:00 21.0775 C 24.1917 %
103 05-08-2017 00:00:00 19.94833 C 23.8417 %
104 06-08-2017 00:00:00 18.32583 C 25.1000 %
105 07-08-2017 00:00:00 17.93417 C 26.7083 %
106 08-08-2017 00:00:00 17.9375 C 27.5583 %
107 09-08-2017 00:00:00 18.1525 C 23.5583 %
108 10-08-2017 00:00:00 15.35 C 47.5833 %
109 11-08-2017 00:00:00 14.705 C 51.5167 %
110 12-08-2017 00:00:00 15.305 C 40.2750 %
111 13-08-2017 00:00:00 18.60917 C 28.7333 %
112 14-08-2017 00:00:00 18.56167 C 33.7917 %
113 15-08-2017 00:00:00 18.83833 C 38.5333 %
114 16-08-2017 00:00:00 19.97167 C 37.3917 %
115 17-08-2017 00:00:00 19.57167 C 33.3667 %
116 18-08-2017 00:00:00 18.17417 C 43.5167 %
117 19-08-2017 00:00:00 14.47417 C 43.3667 %
118 20-08-2017 00:00:00 14.925 C 30.8417 %
119 21-08-2017 00:00:00 16.3575 C 28.8917 %
120 22-08-2017 00:00:00 16.08833 C 31.8500 %
121 23-08-2017 00:00:00 17.92583 C 30.8917 %
122 24-08-2017 00:00:00 19.9075 C 26.1917 %
123 25-08-2017 00:00:00 18.30833 C 37.3750 %
124 26-08-2017 00:00:00 20.88833 C 44.3167 %
125 27-08-2017 00:00:00 19.63083 C 34.5250 %
Sensor: Nr:Datum:Temp:Feuchte:
Aussen-T/F 126 28-08-2017 00:00:00 19.4775 C 30.1667 %
127 29-08-2017 00:00:00 20.03667 C 34.9500 %
128 30-08-2017 00:00:00 20.91167 C 31.6750 %
129 31-08-2017 00:00:00 17.32857 C 27.5210 %
130 01-09-2017 00:00:00 14.1 C 34.5083 %
131 02-09-2017 00:00:00 14.51417 C 34.0667 %
132 03-09-2017 00:00:00 12.90417 C 31.6750 %
133 04-09-2017 00:00:00 13.94167 C 34.8750 %
134 05-09-2017 00:00:00 17.87 C 36.6833 %
135 06-09-2017 00:00:00 17.47083 C 25.8083 %
136 07-09-2017 00:00:00 15.90083 C 21.1083 %
137 08-09-2017 00:00:00 15.99583 C 20.6583 %
138 09-09-2017 00:00:00 14.54 C 39.9417 %
139 10-09-2017 00:00:00 13.27583 C 43.1833 %
140 11-09-2017 00:00:00 14.27083 C 26.4083 %
141 12-09-2017 00:00:00 14.32583 C 26.1417 %
142 13-09-2017 00:00:00 13.965 C 38.8333 %
143 14-09-2017 00:00:00 11.75417 C 39.2750 %
144 15-09-2017 00:00:00 12.5175 C 33.8750 %
145 16-09-2017 00:00:00 10.11333 C 40.9500 %
146 17-09-2017 00:00:00 9.67 C 51.4833 %
147 18-09-2017 00:00:00 10.46 C 46.2417 %
148 19-09-2017 00:00:00 11.76 C 32.8500 %
149 20-09-2017 00:00:00 11.29583 C 42.5167 %
150 21-09-2017 00:00:00 10.49 C 44.7417 %
Sensor: Nr:Datum:Temp:Feuchte:
Aussen-T/F 151 22-09-2017 00:00:00 11.12417 C 43.8917 %
152 23-09-2017 00:00:00 13.495 C 40.1917 %
153 24-09-2017 00:00:00 12.475 C 44.1417 %
154 25-09-2017 00:00:00 12.56583 C 44.0250 %
155 26-09-2017 00:00:00 13.27167 C 41.8333 %
156 27-09-2017 00:00:00 13.05083 C 43.9333 %
157 28-09-2017 00:00:00 14.64667 C 44.6000 %
158 29-09-2017 00:00:00 17.38667 C 38.5083 %
159 30-09-2017 00:00:00 14.205 C 48.5667 %
160 01-10-2017 00:00:00 10.23667 C 56.3000 %
161 02-10-2017 00:00:00 13.38833 C 43.6167 %
162 03-10-2017 00:00:00 12.20667 C 42.3667 %
163 04-10-2017 00:00:00 11.05583 C 31.0333 %
164 05-10-2017 00:00:00 12.92833 C 21.9667 %
165 06-10-2017 00:00:00 9.4 C 33.6250 %
166 07-10-2017 00:00:00 9.55083 C 31.6583 %
167 08-10-2017 00:00:00 11.81833 C 41.5417 %
168 09-10-2017 00:00:00 10.9925 C 47.1583 %
169 10-10-2017 00:00:00 12.88917 C 31.8167 %
170 11-10-2017 00:00:00 13.19167 C 31.2083 %
171 12-10-2017 00:00:00 13.13667 C 36.6500 %
172 13-10-2017 00:00:00 13.9275 C 38.7583 %
173 14-10-2017 00:00:00 12.47167 C 50.0167 %
174 15-10-2017 00:00:00 11.94833 C 54.6750 %
175 16-10-2017 00:00:00 12.63333 C 51.4833 %
Sensor: Nr:Datum:Temp:Feuchte:
Aussen-T/F 176 17-10-2017 00:00:00 12.20667 C 52.4250 %
177 18-10-2017 00:00:00 11.85333 C 50.4167 %
178 19-10-2017 00:00:00 11.0025 C 50.7750 %
179 20-10-2017 00:00:00 11.63697 C 37.7479 %
180 21-10-2017 00:00:00 11.28083 C 38.1917 %
181 22-10-2017 00:00:00 10.28417 C 24.4167 %
182 23-10-2017 00:00:00 10.42417 C 23.7667 %
183 24-10-2017 00:00:00 12.76333 C 33.7917 %
184 25-10-2017 00:00:00 15.1425 C 27.6500 %
185 26-10-2017 00:00:00 13.17917 C 29.2667 %
186 27-10-2017 00:00:00 10.80833 C 33.6167 %
187 28-10-2017 00:00:00 10.09833 C 24.5250 %
188 29-10-2017 00:00:00 10.1184 C 26.6160 %
189 30-10-2017 00:00:00 6.43917 C 30.2667 %
190 31-10-2017 00:00:00 7.06917 C 27.1250 %
191 01-11-2017 00:00:00 7.99917 C 24.8000 %
192 02-11-2017 00:00:00 7.76917 C 32.9583 %
193 03-11-2017 00:00:00 6.735 C 45.5833 %
194 04-11-2017 00:00:00 7.89167 C 53.2917 %
195 05-11-2017 00:00:00 8.26167 C 46.6500 %
196 06-11-2017 00:00:00 5.14 C 33.5917 %
197 07-11-2017 00:00:00 4.24333 C 45.0833 %
198 08-11-2017 00:00:00 6.0575 C 55.0333 %
199 09-11-2017 00:00:00 7.38917 C 46.1583 %
200 10-11-2017 00:00:00 6.65917 C 26.9667 %
Sensor: Nr:Datum:Temp:Feuchte:
Aussen-T/F 201 11-11-2017 00:00:00 5.63583 C 40.7000 %
202 12-11-2017 00:00:00 3.91583 C 58.4500 %
203 13-11-2017 00:00:00 4.73833 C 41.6917 %
204 14-11-2017 00:00:00 3.73417 C 47.8500 %
205 15-11-2017 00:00:00 6.5375 C 27.1083 %
206 16-11-2017 00:00:00 4.27833 C 39.8500 %
207 17-11-2017 00:00:00 5.2975 C 48.8250 %
208 18-11-2017 00:00:00 2.87083 C 39.8833 %
209 19-11-2017 00:00:00 4.78583 C 32.4167 %
210 20-11-2017 00:00:00 4.46917 C 31.8667 %
211 21-11-2017 00:00:00 8.65667 C 28.5833 %
212 22-11-2017 00:00:00 7.285 C 30.5250 %
213 23-11-2017 00:00:00 8.5175 C 46.0583 %
214 24-11-2017 00:00:00 9.68 C 41.3083 %
215 25-11-2017 00:00:00 4.5475 C 53.6583 %
216 26-11-2017 00:00:00 2.92583 C 28.8917 %
217 27-11-2017 00:00:00 4.8625 C 21.2917 %
218 28-11-2017 00:00:00 3.22667 C 51.1000 %
219 29-11-2017 00:00:00 2.265 C 55.6667 %
220 30-11-2017 00:00:00 1.60417 C 52.1417 %
221 01-12-2017 00:00:00 -0.2175 C 65.1167 %
222 02-12-2017 00:00:00 0.44833 C 41.3833 %
223 03-12-2017 00:00:00 -0.00667 C 31.2250 %
224 04-12-2017 00:00:00 2.29 C 46.3167 %
225 05-12-2017 00:00:00 3.6025 C 38.3333 %
Sensor: Nr:Datum:Temp:Feuchte:
Aussen-T/F 226 06-12-2017 00:00:00 5.19833 C 24.6583 %
227 07-12-2017 00:00:00 4.21333 C 22.9083 %
228 08-12-2017 00:00:00 2.61083 C 31.9250 %
229 09-12-2017 00:00:00 0.24417 C 20.0083 %
230 10-12-2017 00:00:00 1.39167 C 28.5667 %
231 11-12-2017 00:00:00 4.91083 C 48.9333 %
232 12-12-2017 00:00:00 2.8125 C 21.0417 %
233 13-12-2017 00:00:00 2.70083 C 32.0833 %
234 14-12-2017 00:00:00 3.58417 C 33.7083 %
235 15-12-2017 00:00:00 2.05167 C 59.1500 %
236 16-12-2017 00:00:00 2.14667 C 54.8167 %
237 17-12-2017 00:00:00 2.22583 C 28.7000 %
238 18-12-2017 00:00:00 0.71333 C 56.1333 %
239 19-12-2017 00:00:00 2.67 C 67.9667 %
240 20-12-2017 00:00:00 4.95083 C 67.4833 %
241 21-12-2017 00:00:00 6.82667 C 61.0083 %
242 22-12-2017 00:00:00 8.10417 C 67.4917 %
243 23-12-2017 00:00:00 8.1975 C 39.8417 %
244 24-12-2017 00:00:00 8.37583 C 20.1083 %
245 25-12-2017 00:00:00 6.34167 C 20.0583 %
246 26-12-2017 00:00:00 3.55917 C 38.0083 %
247 27-12-2017 00:00:00 4.2 C 40.9333 %
248 28-12-2017 00:00:00 2.28083 C 30.6667 %
249 29-12-2017 00:00:00 1.6 C 29.8333 %
250 30-12-2017 00:00:00 6.22583 C 44.3250 %
Sensor: Nr:Datum:Temp:Feuchte:
Aussen-T/F 251 31-12-2017 00:00:00 12.09667 C 23.3583 %
252 01-01-2018 00:00:00 7.035 C 28.9500 %
253 02-01-2018 00:00:00 5.395 C 28.4083 %
254 03-01-2018 00:00:00 7.40667 C 26.8250 %
255 04-01-2018 00:00:00 7.375 C 35.2167 %
256 05-01-2018 00:00:00 7.45583 C 34.5250 %
257 06-01-2018 00:00:00 5.4075 C 71.1333 %
258 07-01-2018 00:00:00 4.365 C 39.4167 %
259 08-01-2018 00:00:00 3.86417 C 21.1167 %
260 09-01-2018 00:00:00 4.01083 C 35.8167 %
261 10-01-2018 00:00:00 5.88833 C 39.9000 %
262 11-01-2018 00:00:00 6.29167 C 52.8750 %
263 12-01-2018 00:00:00 5.70083 C 50.0167 %
264 13-01-2018 00:00:00 4.70917 C 38.6750 %
265 14-01-2018 00:00:00 2.06917 C 25.5583 %
266 15-01-2018 00:00:00 2.675 C 35.7000 %
267 16-01-2018 00:00:00 5.00167 C 27.7500 %
268 17-01-2018 00:00:00 2.35 C 27.4500 %
269 18-01-2018 00:00:00 4.8775 C 25.4667 %
270 19-01-2018 00:00:00 2.92583 C 27.3750 %
271 20-01-2018 00:00:00 2.10833 C 38.1000 %
272 21-01-2018 00:00:00 1.73917 C 43.8167 %
273 22-01-2018 00:00:00 4.38583 C 45.1083 %
274 23-01-2018 00:00:00 6.65593 C 27.4831 %
275 24-01-2018 00:00:00 10.79316 C 24.5470 %
Sensor: Nr:Datum:Temp:Feuchte:
Aussen-T/F 276 25-01-2018 00:00:00 9.13917 C 43.9750 %
277 26-01-2018 00:00:00 5.89167 C 56.7333 %
278 27-01-2018 00:00:00 4.26583 C 45.6667 %
279 28-01-2018 00:00:00 6.63917 C 22.5333 %
280 29-01-2018 00:00:00 9.275 C 22.7417 %
281 30-01-2018 00:00:00 4.25333 C 35.1167 %
282 31-01-2018 00:00:00 6.62917 C 32.6500 %
283 01-02-2018 00:00:00 2.0675 C 36.1083 %
284 02-02-2018 00:00:00 2.36417 C 31.6667 %
285 03-02-2018 00:00:00 2.65042 C 30.2269 %
286 04-02-2018 00:00:00 0.38667 C 29.6333 %
287 05-02-2018 00:00:00 -0.98583 C 20.2500 %
288 06-02-2018 00:00:00 -1.55167 C 25.9583 %
289 07-02-2018 00:00:00 -0.79667 C 32.3833 %
290 08-02-2018 00:00:00 -3.34333 C 28.9667 %
291 09-02-2018 00:00:00 -2.8975 C 36.1833 %
292 10-02-2018 00:00:00 1.41833 C 24.0167 %
293 11-02-2018 00:00:00 2.22 C 26.3667 %
294 12-02-2018 00:00:00 1.25083 C 34.8917 %
295 13-02-2018 00:00:00 -1.44 C 29.8417 %
296 14-02-2018 00:00:00 -3.14333 C 28.8667 %
297 15-02-2018 00:00:00 0.80417 C 40.6583 %
298 16-02-2018 00:00:00 0.98667 C 60.1667 %
299 17-02-2018 00:00:00 -0.55 C 48.8833 %
300 18-02-2018 00:00:00 -2.16917 C 38.4250 %
Sensor: Nr:Datum:Temp:Feuchte:
Aussen-T/F 301 19-02-2018 00:00:00 0.37083 C 35.6500 %
302 20-02-2018 00:00:00 -0.54083 C 33.3417 %
303 21-02-2018 00:00:00 -0.04917 C 22.5333 %
304 22-02-2018 00:00:00 -1.265 C 21.2167 %
305 23-02-2018 00:00:00 -2.0175 C 20.0000 %
306 24-02-2018 00:00:00 -2.72667 C 20.0000 %
307 25-02-2018 00:00:00 -3.74417 C 20.0000 %
308 26-02-2018 00:00:00 -5.06167 C 20.0000 %
309 27-02-2018 00:00:00 -7.2225 C 20.3500 %
310 28-02-2018 00:00:00 -7.98333 C 20.0000 %
311 01-03-2018 00:00:00 -3.74917 C 20.0000 %
312 02-03-2018 00:00:00 -2.59083 C 20.0917 %
313 03-03-2018 00:00:00 -0.72083 C 28.3583 %
314 04-03-2018 00:00:00 3.2 C 37.8833 %
315 05-03-2018 00:00:00 5.22833 C 42.3583 %
316 06-03-2018 00:00:00 4.25 C 40.7750 %
317 07-03-2018 00:00:00 4.89167 C 43.0333 %
318 08-03-2018 00:00:00 5.66417 C 23.5833 %
319 09-03-2018 00:00:00 4.83667 C 41.9500 %
320 10-03-2018 00:00:00 9.51333 C 45.7833 %
321 11-03-2018 00:00:00 9.60833 C 40.1667 %
322 12-03-2018 00:00:00 9.04083 C 37.0250 %
323 13-03-2018 00:00:00 6.84083 C 24.1083 %
324 14-03-2018 00:00:00 6.32917 C 26.1667 %
325 15-03-2018 00:00:00 5.73833 C 33.0750 %
Sensor: Nr:Datum:Temp:Feuchte:
Aussen-T/F 326 16-03-2018 00:00:00 7.00917 C 47.9667 %
327 17-03-2018 00:00:00 -0.93917 C 20.2583 %
328 18-03-2018 00:00:00 -2.1675 C 20.0000 %
329 19-03-2018 00:00:00 -0.63417 C 20.0000 %
330 20-03-2018 00:00:00 -0.4175 C 20.0167 %
331 21-03-2018 00:00:00 0.5225 C 24.8500 %
332 22-03-2018 00:00:00 2.45417 C 30.2000 %
333 23-03-2018 00:00:00 5.83583 C 38.3250 %
334 24-03-2018 00:00:00 4.74917 C 35.3167 %
335 25-03-2018 00:00:00 4.60522 C 30.4870 %
336 26-03-2018 00:00:00 7.34167 C 20.0250 %
337 27-03-2018 00:00:00 5.52083 C 29.7083 %
338 28-03-2018 00:00:00 8.02667 C 36.4167 %
339 29-03-2018 00:00:00 6.93667 C 20.9833 %
340 30-03-2018 00:00:00 6.38833 C 34.0000 %
341 31-03-2018 00:00:00 7.84583 C 39.4917 %
342 01-04-2018 00:00:00 7.26083 C 20.4250 %
343 02-04-2018 00:00:00 8.7875 C 27.6500 %
344 03-04-2018 00:00:00 13.26583 C 20.0000 %
345 04-04-2018 00:00:00 10.6625 C 24.3500 %
346 05-04-2018 00:00:00 7.485 C 30.3417 %
347 06-04-2018 00:00:00 6.66833 C 35.5583 %
348 07-04-2018 00:00:00 12.16083 C 22.7583 %
349 08-04-2018 00:00:00 14.75333 C 22.3333 %
350 09-04-2018 00:00:00 13.84583 C 24.6917 %
Sensor: Nr:Datum:Temp:Feuchte:
Aussen-T/F 351 10-04-2018 00:00:00 12.68 C 28.0833 %
352 11-04-2018 00:00:00 11.99333 C 34.9833 %
353 12-04-2018 00:00:00 13.34833 C 37.0500 %
354 13-04-2018 00:00:00 9.9075 C 32.0833 %
355 14-04-2018 00:00:00 12.74 C 36.2167 %
356 15-04-2018 00:00:00 14.41667 C 27.2750 %
357 16-04-2018 00:00:00 13.76083 C 31.1917 %
358 17-04-2018 00:00:00 14.02167 C 29.2083 %
359 18-04-2018 00:00:00 15.74583 C 26.0333 %
360 19-04-2018 00:00:00 17.22083 C 26.6000 %
361 20-04-2018 00:00:00 17.00083 C 24.1667 %
362 21-04-2018 00:00:00 18.43667 C 23.5750 %
363 22-04-2018 00:00:00 18.55417 C 25.1083 %
364 23-04-2018 00:00:00 18.66417 C 20.2833 %
365 24-04-2018 00:00:00 14.27333 C 24.2167 %
366 25-04-2018 00:00:00 13.4125 C 21.6750 %
367 26-04-2018 00:00:00 11.21 C 20.0000 %
368 27-04-2018 00:00:00 12.55083 C 22.6167 %
369 28-04-2018 00:00:00 12.6075 C 23.1000 %
370 29-04-2018 00:00:00 14.48167 C 29.9583 %
371 30-04-2018 00:00:00 13.82167 C 24.6083 %
372 01-05-2018 00:00:00 9.82667 C 20.0500 %
373 02-05-2018 00:00:00 9.81083 C 27.0250 %
374 03-05-2018 00:00:00 12.9575 C 23.3250 %
375 04-05-2018 00:00:00 13.49833 C 21.9583 %
Sensor: Nr:Datum:Temp:Feuchte:
Aussen-T/F 376 05-05-2018 00:00:00 15.83583 C 20.0667 %
377 06-05-2018 00:00:00 17.25 C 20.1167 %
378 07-05-2018 00:00:00 17.88167 C 21.1000 %
379 08-05-2018 00:00:00 18.43583 C 22.6667 %
380 09-05-2018 00:00:00 17.19333 C 22.2583 %
381 10-05-2018 00:00:00 14.13917 C 25.9500 %
382 11-05-2018 00:00:00 14.92083 C 27.9167 %
383 12-05-2018 00:00:00 17.0825 C 28.2750 %
384 13-05-2018 00:00:00 14.3425 C 37.0500 %
385 14-05-2018 00:00:00 17.16333 C 35.6750 %
386 15-05-2018 00:00:00 16.0375 C 27.9417 %
387 16-05-2018 00:00:00 15.7475 C 27.4000 %
388 17-05-2018 00:00:00 14.55667 C 23.4833 %
389 18-05-2018 00:00:00 13.17083 C 21.1083 %
390 19-05-2018 00:00:00 13.845 C 23.5250 %
391 20-05-2018 00:00:00 14.06917 C 31.8333 %
392 21-05-2018 00:00:00 17.55333 C 27.4333 %
393 22-05-2018 00:00:00 17.09833 C 29.9833 %
394 23-05-2018 00:00:00 17.23083 C 36.1833 %
395 24-05-2018 00:00:00 17.22083 C 27.4917 %
396 25-05-2018 00:00:00 20.19417 C 26.8083 %
397 26-05-2018 00:00:00 21.1325 C 26.3667 %
398 27-05-2018 00:00:00 20.4375 C 27.6917 %
399 28-05-2018 00:00:00 21.70917 C 33.5833 %
400 29-05-2018 00:00:00 20.88333 C 27.1500 %
Sensor: Nr:Datum:Temp:Feuchte:
Aussen-T/F 401 30-05-2018 00:00:00 21.6725 C 28.2333 %
402 31-05-2018 00:00:00 23.08167 C 20.2750 %
403 01-06-2018 00:00:00 19.3725 C 29.3667 %
404 02-06-2018 00:00:00 19.64917 C 23.6750 %
405 03-06-2018 00:00:00 20.04167 C 24.8250 %
406 04-06-2018 00:00:00 21.5125 C 24.5417 %
407 05-06-2018 00:00:00 21.2475 C 22.2500 %
408 06-06-2018 00:00:00 21.6775 C 24.0000 %
409 07-06-2018 00:00:00 21.58667 C 22.6167 %
410 08-06-2018 00:00:00 21.40167 C 24.3000 %
411 09-06-2018 00:00:00 22.3959 C 23.5984 %
412 10-06-2018 00:00:00 21.64333 C 33.3000 %
413 11-06-2018 00:00:00 19.07083 C 41.7083 %
414 12-06-2018 00:00:00 16.44167 C 37.5250 %
415 13-06-2018 00:00:00 15.1 C 22.7000 %
416 14-06-2018 00:00:00 15.48083 C 30.2917 %
417 15-06-2018 00:00:00 17.9025 C 35.7250 %
418 16-06-2018 00:00:00 20.2775 C 26.1583 %
419 17-06-2018 00:00:00 18.42583 C 22.8083 %
420 18-06-2018 00:00:00 18.235 C 21.9750 %
421 19-06-2018 00:00:00 19.13333 C 25.5583 %
422 20-06-2018 00:00:00 23.4825 C 24.4667 %
423 21-06-2018 00:00:00 18.58 C 22.6500 %
424 22-06-2018 00:00:00 14.12167 C 20.0000 %
425 23-06-2018 00:00:00 14.19167 C 21.2750 %
Sensor: Nr:Datum:Temp:Feuchte:
Aussen-T/F 426 24-06-2018 00:00:00 16.46667 C 22.7833 %
427 25-06-2018 00:00:00 17.57167 C 21.5583 %
428 26-06-2018 00:00:00 18.34083 C 24.8583 %
429 27-06-2018 00:00:00 19.81083 C 24.3333 %
430 28-06-2018 00:00:00 21.28417 C 20.6000 %
431 29-06-2018 00:00:00 24.82417 C 20.0000 %
432 30-06-2018 00:00:00 22.8375 C 20.4583 %
433 01-07-2018 00:00:00 21.52333 C 20.0000 %
434 02-07-2018 00:00:00 21.06583 C 20.0000 %
435 03-07-2018 00:00:00 21.34917 C 20.0000 %
436 04-07-2018 00:00:00 19.00917 C 27.2667 %
437 05-07-2018 00:00:00 19.70667 C 33.6083 %
438 06-07-2018 00:00:00 20.57333 C 25.0417 %
439 07-07-2018 00:00:00 21.3521 C 23.5630 %
440 08-07-2018 00:00:00 20.38417 C 21.0583 %
441 09-07-2018 00:00:00 20.71083 C 21.4167 %
442 10-07-2018 00:00:00 17.5975 C 22.4000 %
443 11-07-2018 00:00:00 16.2875 C 33.6667 %
444 12-07-2018 00:00:00 19.71583 C 32.5000 %
445 13-07-2018 00:00:00 20.13 C 24.9667 %
446 14-07-2018 00:00:00 22.01333 C 24.7500 %
447 15-07-2018 00:00:00 22.10833 C 22.6333 %
448 16-07-2018 00:00:00 23.10667 C 21.7167 %
449 17-07-2018 00:00:00 21.59583 C 20.3583 %
450 18-07-2018 00:00:00 20.9475 C 22.7500 %
Sensor: Nr:Datum:Temp:Feuchte:
Aussen-T/F 451 19-07-2018 00:00:00 21.47667 C 21.5833 %
452 20-07-2018 00:00:00 21.81583 C 20.1917 %
453 21-07-2018 00:00:00 20.94083 C 22.6750 %
454 22-07-2018 00:00:00 22.115 C 25.1500 %
455 23-07-2018 00:00:00 22.98917 C 21.2167 %
456 24-07-2018 00:00:00 24.11417 C 22.5833 %
457 25-07-2018 00:00:00 25.90417 C 20.1583 %
458 26-07-2018 00:00:00 27.54333 C 20.0167 %
459 27-07-2018 00:00:00 26.46167 C 20.0000 %
460 28-07-2018 00:00:00 22.24 C 22.3250 %
461 29-07-2018 00:00:00 23.87667 C 23.3500 %
462 30-07-2018 00:00:00 24.435 C 20.3250 %
463 31-07-2018 00:00:00 25.8025 C 21.1500 %
464 01-08-2018 00:00:00 20.68583 C 32.5500 %
465 02-08-2018 00:00:00 24.12 C 31.7333 %
466 03-08-2018 00:00:00 26.79583 C 20.9083 %
467 04-08-2018 00:00:00 26.84 C 20.0667 %
468 05-08-2018 00:00:00 25.5025 C 20.1667 %
469 06-08-2018 00:00:00 24.4075 C 20.1500 %
470 07-08-2018 00:00:00 26.99333 C 20.0000 %
471 08-08-2018 00:00:00 25.83667 C 20.0000 %
472 09-08-2018 00:00:00 20.8725 C 26.6583 %
473 10-08-2018 00:00:00 18.73667 C 20.8917 %
474 11-08-2018 00:00:00 18.76667 C 20.0000 %
475 12-08-2018 00:00:00 18.38667 C 21.9833 %
Sensor: Nr:Datum:Temp:Feuchte:
Aussen-T/F 476 13-08-2018 00:00:00 17.82083 C 28.9750 %
477 14-08-2018 00:00:00 18.755 C 28.1167 %
478 15-08-2018 00:00:00 19.59583 C 29.0833 %
479 16-08-2018 00:00:00 20.84333 C 28.0000 %
480 17-08-2018 00:00:00 20.11583 C 22.3500 %
481 18-08-2018 00:00:00 19.2675 C 26.3417 %
482 19-08-2018 00:00:00 20.68667 C 23.5250 %
483 20-08-2018 00:00:00 21.20333 C 20.6833 %
484 21-08-2018 00:00:00 22.2425 C 24.3417 %
485 22-08-2018 00:00:00 23.51417 C 22.7667 %
486 23-08-2018 00:00:00 23.22 C 23.0167 %
487 24-08-2018 00:00:00 19.31833 C 20.6583 %
488 25-08-2018 00:00:00 14.65417 C 21.6083 %
489 26-08-2018 00:00:00 13.95083 C 28.0000 %
490 27-08-2018 00:00:00 18.20917 C 20.3667 %
491 28-08-2018 00:00:00 18.39833 C 20.7167 %
492 29-08-2018 00:00:00 17.005 C 30.8917 %
493 30-08-2018 00:00:00 17.4125 C 25.9167 %
494 31-08-2018 00:00:00 15.33167 C 23.6000 %
495 01-09-2018 00:00:00 14.445 C 26.6667 %
496 02-09-2018 00:00:00 14.24833 C 24.8000 %
497 03-09-2018 00:00:00 18.13417 C 22.9917 %
498 04-09-2018 00:00:00 20.0425 C 27.0167 %
499 05-09-2018 00:00:00 20.69 C 25.3083 %
500 06-09-2018 00:00:00 18.0925 C 32.7583 %
Sensor: Nr:Datum:Temp:Feuchte:
Aussen-T/F 501 07-09-2018 00:00:00 15.6675 C 33.8500 %
502 08-09-2018 00:00:00 13.5425 C 30.5333 %
503 09-09-2018 00:00:00 16.80833 C 23.2500 %
504 10-09-2018 00:00:00 17.5025 C 23.9000 %
505 11-09-2018 00:00:00 18.86667 C 26.0333 %
506 12-09-2018 00:00:00 19.03167 C 24.0083 %
507 13-09-2018 00:00:00 16.5775 C 25.7417 %
508 14-09-2018 00:00:00 17.1375 C 25.2000 %
509 15-09-2018 00:00:00 15.17 C 21.0833 %
510 16-09-2018 00:00:00 14.51 C 27.7833 %
511 17-09-2018 00:00:00 16.24583 C 25.3583 %
512 18-09-2018 00:00:00 18.72833 C 26.0000 %
513 19-09-2018 00:00:00 20.545 C 25.3250 %
514 20-09-2018 00:00:00 19.08833 C 26.8417 %
515 21-09-2018 00:00:00 15.91167 C 24.5750 %
516 22-09-2018 00:00:00 12.6825 C 25.6333 %
517 23-09-2018 00:00:00 12.18083 C 47.2250 %
518 24-09-2018 00:00:00 9.66 C 36.3583 %
519 25-09-2018 00:00:00 8.06417 C 42.7083 %
520 26-09-2018 00:00:00 8.5625 C 35.2583 %
521 27-09-2018 00:00:00 10.55833 C 35.5667 %
522 28-09-2018 00:00:00 9.67833 C 43.7167 %
523 29-09-2018 00:00:00 7.75083 C 41.1250 %
524 30-09-2018 00:00:00 7.2475 C 35.9250 %
525 01-10-2018 00:00:00 9.41583 C 29.7833 %
Sensor: Nr:Datum:Temp:Feuchte:
Aussen-T/F 526 02-10-2018 00:00:00 8.87917 C 33.7167 %
527 03-10-2018 00:00:00 11.93917 C 34.0750 %
528 04-10-2018 00:00:00 9.37167 C 38.3000 %
529 05-10-2018 00:00:00 10.05917 C 42.4917 %
530 06-10-2018 00:00:00 12.08583 C 44.5417 %
531 07-10-2018 00:00:00 12.625 C 37.2750 %
532 08-10-2018 00:00:00 9.9775 C 39.4833 %
533 09-10-2018 00:00:00 11.14583 C 44.1500 %
534 10-10-2018 00:00:00 12.71667 C 45.8500 %
535 11-10-2018 00:00:00 13.6775 C 40.8667 %
536 12-10-2018 00:00:00 15.05417 C 38.8667 %
537 13-10-2018 00:00:00 14.68833 C 38.8250 %
538 14-10-2018 00:00:00 13.92083 C 36.1000 %
539 15-10-2018 00:00:00 12.87417 C 37.7167 %
540 16-10-2018 00:00:00 12.0325 C 38.6083 %
541 17-10-2018 00:00:00 12.01333 C 41.5083 %
542 18-10-2018 00:00:00 13.73917 C 38.0333 %
543 19-10-2018 00:00:00 11.66417 C 37.7167 %
544 20-10-2018 00:00:00 10.57167 C 36.9583 %
545 21-10-2018 00:00:00 6.7725 C 44.7500 %
546 22-10-2018 00:00:00 7.16833 C 43.7083 %
547 23-10-2018 00:00:00 8.68 C 39.8083 %
548 24-10-2018 00:00:00 13.58167 C 33.8333 %
549 25-10-2018 00:00:00 12.74667 C 31.1083 %
550 26-10-2018 00:00:00 9.95417 C 28.9917 %
Sensor: Nr:Datum:Temp:Feuchte:
Aussen-T/F 551 27-10-2018 00:00:00 5.7925 C 48.4000 %
552 28-10-2018 00:00:00 5.2 C 33.7840 %
553 29-10-2018 00:00:00 5.97083 C 33.6667 %
554 30-10-2018 00:00:00 5.80583 C 46.3667 %
555 31-10-2018 00:00:00 6.87167 C 39.3333 %
556 01-11-2018 00:00:00 5.49083 C 58.1333 %
557 02-11-2018 00:00:00 8.22333 C 53.4750 %
558 03-11-2018 00:00:00 3.10583 C 60.6667 %
559 04-11-2018 00:00:00 6.64167 C 47.4000 %
560 05-11-2018 00:00:00 9.7725 C 45.3417 %
561 06-11-2018 00:00:00 7.78167 C 57.6917 %
562 07-11-2018 00:00:00 8.4 C 54.3917 %
563 08-11-2018 00:00:00 9.7 C 41.1583 %
564 09-11-2018 00:00:00 8.83167 C 49.0500 %
565 10-11-2018 00:00:00 11.32 C 42.0250 %
566 11-11-2018 00:00:00 11.46583 C 47.7500 %
567 12-11-2018 00:00:00 13.07917 C 44.0417 %
568 13-11-2018 00:00:00 9.75583 C 50.0167 %
569 14-11-2018 00:00:00 5.56917 C 61.4000 %
570 15-11-2018 00:00:00 6.72833 C 38.5000 %
571 16-11-2018 00:00:00 5.12667 C 41.4000 %
572 17-11-2018 00:00:00 1.785 C 48.8667 %
573 18-11-2018 00:00:00 0.80333 C 30.7417 %
574 19-11-2018 00:00:00 2.95833 C 26.3167 %
575 20-11-2018 00:00:00 2.95167 C 25.6167 %
Sensor: Nr:Datum:Temp:Feuchte:
Aussen-T/F 576 21-11-2018 00:00:00 1.93 C 37.9750 %
577 22-11-2018 00:00:00 2.22833 C 39.2750 %
578 23-11-2018 00:00:00 -0.8425 C 54.2583 %
579 24-11-2018 00:00:00 4.05833 C 58.0917 %
580 25-11-2018 00:00:00 5.29 C 56.7917 %
581 26-11-2018 00:00:00 6.09333 C 35.8583 %
582 27-11-2018 00:00:00 3.6075 C 30.9583 %
583 28-11-2018 00:00:00 2.97583 C 45.6917 %
584 29-11-2018 00:00:00 4.98333 C 47.6917 %
585 30-11-2018 00:00:00 6.67167 C 48.6583 %
586 01-12-2018 00:00:00 6.67417 C 47.9750 %
587 02-12-2018 00:00:00 10.59167 C 45.4750 %
588 03-12-2018 00:00:00 11.02333 C 51.1333 %
589 04-12-2018 00:00:00 5.62 C 45.3833 %
590 05-12-2018 00:00:00 3.15546 C 56.8487 %
591 06-12-2018 00:00:00 9.21333 C 47.7750 %
592 07-12-2018 00:00:00 10.71583 C 33.9000 %
593 08-12-2018 00:00:00 7.28083 C 37.2333 %
594 09-12-2018 00:00:00 7.285 C 37.6917 %
595 10-12-2018 00:00:00 3.9825 C 44.3833 %
596 11-12-2018 00:00:00 2.87417 C 51.3500 %
597 12-12-2018 00:00:00 2.0375 C 58.1583 %
598 13-12-2018 00:00:00 0.49 C 37.0417 %
599 14-12-2018 00:00:00 0.48 C 20.9833 %
600 15-12-2018 00:00:00 -0.09083 C 24.2083 %
Sensor: Nr:Datum:Temp:Feuchte:
Aussen-T/F 601 16-12-2018 00:00:00 0.045 C 43.8833 %
602 17-12-2018 00:00:00 3.4775 C 51.8333 %
603 18-12-2018 00:00:00 4.1675 C 41.5083 %
604 19-12-2018 00:00:00 5.75 C 37.3000 %
605 20-12-2018 00:00:00 6.87083 C 39.0583 %
606 21-12-2018 00:00:00 10.1725 C 34.4750 %
607 22-12-2018 00:00:00 9.26167 C 35.0083 %
608 23-12-2018 00:00:00 7.89333 C 46.8500 %
609 24-12-2018 00:00:00 4.10333 C 44.5000 %
610 25-12-2018 00:00:00 1.0625 C 49.8500 %
611 26-12-2018 00:00:00 -1.61083 C 52.7667 %
612 27-12-2018 00:00:00 -0.68583 C 57.2917 %
613 28-12-2018 00:00:00 -0.61667 C 51.7667 %
614 29-12-2018 00:00:00 2.0175 C 45.4833 %
615 30-12-2018 00:00:00 6.73917 C 37.6417 %
616 31-12-2018 00:00:00 6.84917 C 56.5417 %
617 01-01-2019 00:00:00 6.345 C 45.5833 %
618 02-01-2019 00:00:00 2.72417 C 34.2083 %
619 03-01-2019 00:00:00 1.28167 C 47.5833 %
620 04-01-2019 00:00:00 2.41333 C 45.7833 %
621 05-01-2019 00:00:00 5.14417 C 47.4583 %
622 06-01-2019 00:00:00 5.0725 C 44.3083 %
623 07-01-2019 00:00:00 4.8875 C 41.5500 %
624 08-01-2019 00:00:00 5.74917 C 36.7000 %
625 09-01-2019 00:00:00 3.05083 C 34.6917 %
Sensor: Nr:Datum:Temp:Feuchte:
Aussen-T/F 626 10-01-2019 00:00:00 1.36 C 32.5417 %
627 11-01-2019 00:00:00 2.05417 C 54.0417 %
628 12-01-2019 00:00:00 5.01833 C 46.3583 %
629 13-01-2019 00:00:00 6.9225 C 47.7417 %
630 14-01-2019 00:00:00 4.06833 C 43.5667 %
631 15-01-2019 00:00:00 4.06833 C 40.0333 %
632 16-01-2019 00:00:00 4.52583 C 35.3417 %
633 17-01-2019 00:00:00 4.27167 C 37.9583 %
634 18-01-2019 00:00:00 -0.2025 C 49.3250 %
635 19-01-2019 00:00:00 -3.87667 C 48.1333 %
636 20-01-2019 00:00:00 -6.33 C 47.2250 %
637 21-01-2019 00:00:00 -7.505 C 46.8917 %
638 22-01-2019 00:00:00 -5.97917 C 44.1750 %
639 23-01-2019 00:00:00 -2.435 C 39.5667 %
640 24-01-2019 00:00:00 -2.72417 C 26.7667 %
641 25-01-2019 00:00:00 -0.50917 C 39.3333 %
642 26-01-2019 00:00:00 3.62167 C 45.9417 %
643 27-01-2019 00:00:00 4.94833 C 43.1917 %
644 28-01-2019 00:00:00 2.2025 C 45.2417 %
645 29-01-2019 00:00:00 0.865 C 44.1667 %
646 30-01-2019 00:00:00 -0.46833 C 49.8250 %
647 31-01-2019 00:00:00 -1.03333 C 52.2750 %
648 01-02-2019 00:00:00 0.72167 C 56.8333 %
649 02-02-2019 00:00:00 1.59587 C 62.5950 %
650 03-02-2019 00:00:00 1.86583 C 40.0750 %
Sensor: Nr:Datum:Temp:Feuchte:
Aussen-T/F 651 04-02-2019 00:00:00 0.99417 C 40.5833 %
652 05-02-2019 00:00:00 3.66167 C 30.5917 %
653 06-02-2019 00:00:00 0.09417 C 46.8417 %
654 07-02-2019 00:00:00 4.26083 C 38.9917 %
655 08-02-2019 00:00:00 6.77417 C 31.6250 %
656 09-02-2019 00:00:00 8.02083 C 28.8667 %
657 10-02-2019 00:00:00 7.15083 C 39.6167 %
658 11-02-2019 00:00:00 4.03667 C 38.3917 %
659 12-02-2019 00:00:00 3.01917 C 38.2083 %
660 13-02-2019 00:00:00 0.96333 C 46.8167 %
661 14-02-2019 00:00:00 -0.46667 C 51.0250 %
662 15-02-2019 00:00:00 0.9925 C 45.0667 %
663 16-02-2019 00:00:00 1.9325 C 47.3750 %
664 17-02-2019 00:00:00 2.17333 C 49.1333 %
665 18-02-2019 00:00:00 2.31167 C 43.0500 %
666 19-02-2019 00:00:00 4.89 C 40.9750 %
667 20-02-2019 00:00:00 3.7725 C 45.5000 %
668 21-02-2019 00:00:00 5.655 C 46.3667 %
669 22-02-2019 00:00:00 9.27167 C 39.5167 %
670 23-02-2019 00:00:00 4.58167 C 33.2583 %
671 24-02-2019 00:00:00 2.29833 C 32.9417 %
672 25-02-2019 00:00:00 3.65667 C 31.8250 %
673 26-02-2019 00:00:00 4.75583 C 37.6333 %
674 27-02-2019 00:00:00 5.17417 C 38.9250 %
675 28-02-2019 00:00:00 8.185 C 29.8833 %
Sensor: Nr:Datum:Temp:Feuchte:
Aussen-T/F 676 01-03-2019 00:00:00 7.515 C 43.8250 %
677 02-03-2019 00:00:00 8.29333 C 34.1417 %
678 03-03-2019 00:00:00 10.72417 C 28.1417 %
679 04-03-2019 00:00:00 9.1575 C 27.8167 %
680 05-03-2019 00:00:00 6.32167 C 30.8917 %
681 06-03-2019 00:00:00 9.5125 C 32.3667 %
682 07-03-2019 00:00:00 9.61917 C 28.3833 %
683 08-03-2019 00:00:00 7.73167 C 28.8250 %
684 09-03-2019 00:00:00 10.01667 C 26.3333 %
685 10-03-2019 00:00:00 9.11083 C 30.1417 %
686 11-03-2019 00:00:00 4.19667 C 30.2417 %
687 12-03-2019 00:00:00 6.18083 C 27.8583 %
688 13-03-2019 00:00:00 5.6775 C 31.5250 %
689 14-03-2019 00:00:00 6.3325 C 38.0083 %
690 15-03-2019 00:00:00 9.61417 C 37.6917 %
691 16-03-2019 00:00:00 9.76833 C 35.9667 %
692 17-03-2019 00:00:00 8.19083 C 26.8333 %
693 18-03-2019 00:00:00 4.3225 C 36.6583 %
694 19-03-2019 00:00:00 3.115 C 40.3583 %
695 20-03-2019 00:00:00 4.81417 C 37.4250 %
696 21-03-2019 00:00:00 6.76333 C 35.7167 %
697 22-03-2019 00:00:00 8.43083 C 34.0750 %
698 23-03-2019 00:00:00 5.40167 C 40.0083 %
699 24-03-2019 00:00:00 5.90583 C 38.2167 %
700 25-03-2019 00:00:00 4.41583 C 37.7583 %
Sensor: Nr:Datum:Temp:Feuchte:
Aussen-T/F 701 26-03-2019 00:00:00 6.33417 C 32.9583 %
702 27-03-2019 00:00:00 6.36583 C 35.3083 %
703 28-03-2019 00:00:00 6.955 C 36.2417 %
704 29-03-2019 00:00:00 8.44167 C 38.7750 %
705 30-03-2019 00:00:00 10.07583 C 34.1833 %
706 31-03-2019 00:00:00 9.90957 C 33.8174 %
707 01-04-2019 00:00:00 8.9475 C 32.5750 %
708 02-04-2019 00:00:00 10.5425 C 29.3083 %
709 03-04-2019 00:00:00 7.865 C 38.6750 %
710 04-04-2019 00:00:00 5.56833 C 48.7000 %
711 05-04-2019 00:00:00 5.95417 C 48.0167 %
712 06-04-2019 00:00:00 9.88333 C 42.1917 %
713 07-04-2019 00:00:00 11.50833 C 36.8000 %
714 08-04-2019 00:00:00 12.34417 C 33.9167 %
715 09-04-2019 00:00:00 12.00333 C 40.7333 %
716 10-04-2019 00:00:00 10.585 C 23.8417 %
717 11-04-2019 00:00:00 6.52917 C 25.0583 %
718 12-04-2019 00:00:00 4.68167 C 20.0000 %
719 13-04-2019 00:00:00 3.585 C 24.4167 %
720 14-04-2019 00:00:00 5.23833 C 34.7917 %
721 15-04-2019 00:00:00 10.29167 C 25.8000 %
722 16-04-2019 00:00:00 10.91333 C 23.2000 %
723 17-04-2019 00:00:00 12.4 C 35.6083 %
724 18-04-2019 00:00:00 13.7675 C 28.5500 %
725 19-04-2019 00:00:00 14.94917 C 24.5083 %
Sensor: Nr:Datum:Temp:Feuchte:
Aussen-T/F 726 20-04-2019 00:00:00 14.60167 C 27.5833 %
727 21-04-2019 00:00:00 15.24333 C 24.6417 %
728 22-04-2019 00:00:00 14.7825 C 27.5667 %
729 23-04-2019 00:00:00 15.12667 C 20.1083 %
730 24-04-2019 00:00:00 15.10083 C 30.7083 %
731 25-04-2019 00:00:00 13.2425 C 38.0667 %
732 26-04-2019 00:00:00 11.8 C 32.0000 %
733 27-04-2019 00:00:00 9.01583 C 40.3667 %
734 28-04-2019 00:00:00 8.43333 C 30.9750 %
735 29-04-2019 00:00:00 8.62417 C 38.4083 %
736 30-04-2019 00:00:00 13.94583 C 26.0833 %
737 01-05-2019 00:00:00 13.03833 C 29.5000 %
738 02-05-2019 00:00:00 12.08333 C 31.3667 %
739 03-05-2019 00:00:00 11.20833 C 25.1500 %
740 04-05-2019 00:00:00 6.17583 C 33.4500 %
741 05-05-2019 00:00:00 6.66333 C 32.0417 %
742 06-05-2019 00:00:00 7.6075 C 30.6583 %
743 07-05-2019 00:00:00 9.645 C 28.6167 %
744 08-05-2019 00:00:00 9.105 C 38.9750 %
745 09-05-2019 00:00:00 11.085 C 36.9583 %
746 10-05-2019 00:00:00 12.44538 C 33.3866 %
747 11-05-2019 00:00:00 9.52833 C 47.9417 %
748 12-05-2019 00:00:00 9.4 C 31.3083 %
749 13-05-2019 00:00:00 9.985 C 30.9083 %
750 14-05-2019 00:00:00 9.66333 C 26.4333 %
Sensor: Nr:Datum:Temp:Feuchte:
Aussen-T/F 751 15-05-2019 00:00:00 10.57083 C 24.3500 %
752 16-05-2019 00:00:00 10.61167 C 23.0917 %
753 17-05-2019 00:00:00 11.4775 C 39.7250 %
754 18-05-2019 00:00:00 14.67167 C 39.3500 %
755 19-05-2019 00:00:00 15.91083 C 38.3750 %
756 20-05-2019 00:00:00 13.655 C 37.8667 %
757 21-05-2019 00:00:00 11.88167 C 45.6167 %
758 22-05-2019 00:00:00 13.2875 C 33.7833 %
759 23-05-2019 00:00:00 15.22667 C 33.1417 %
760 24-05-2019 00:00:00 17.24 C 28.7500 %
761 25-05-2019 00:00:00 15.89917 C 22.8167 %
762 26-05-2019 00:00:00 16.26667 C 29.2667 %
763 27-05-2019 00:00:00 14.66667 C 40.5417 %
764 28-05-2019 00:00:00 14.29917 C 38.6250 %
765 29-05-2019 00:00:00 15.28667 C 25.9000 %
766 30-05-2019 00:00:00 15.82833 C 28.8250 %
767 31-05-2019 00:00:00 19.45583 C 30.4167 %
768 01-06-2019 00:00:00 20.21917 C 30.3583 %
769 02-06-2019 00:00:00 22.16417 C 30.0500 %
770 03-06-2019 00:00:00 21.1475 C 27.1667 %
771 04-06-2019 00:00:00 21.80333 C 28.3333 %
772 05-06-2019 00:00:00 23.57917 C 22.7833 %
773 06-06-2019 00:00:00 16.14167 C 28.3667 %
774 07-06-2019 00:00:00 16.10083 C 29.5250 %
775 08-06-2019 00:00:00 16.40917 C 20.2667 %
Sensor: Nr:Datum:Temp:Feuchte:
Aussen-T/F 776 09-06-2019 00:00:00 16.72333 C 27.7667 %
777 10-06-2019 00:00:00 19.705 C 23.4750 %
778 11-06-2019 00:00:00 17.38 C 32.4667 %
779 12-06-2019 00:00:00 16.405 C 33.2917 %
780 13-06-2019 00:00:00 16.27917 C 34.4333 %
781 14-06-2019 00:00:00 18.17 C 35.6583 %
782 15-06-2019 00:00:00 19.72583 C 33.0250 %
783 16-06-2019 00:00:00 19.94417 C 24.9167 %
784 17-06-2019 00:00:00 19.5125 C 29.1250 %
785 18-06-2019 00:00:00 22.02333 C 27.1333 %
786 19-06-2019 00:00:00 22.62583 C 27.6917 %
787 20-06-2019 00:00:00 20 C 28.0167 %
788 21-06-2019 00:00:00 19.3425 C 27.3333 %
789 22-06-2019 00:00:00 19.82667 C 26.6167 %
790 23-06-2019 00:00:00 22.3125 C 27.3750 %
791 24-06-2019 00:00:00 24.96167 C 26.2167 %
792 25-06-2019 00:00:00 26.83333 C 24.5583 %
793 26-06-2019 00:00:00 27.635 C 23.0833 %
794 27-06-2019 00:00:00 25.18917 C 20.6083 %
795 28-06-2019 00:00:00 22.44833 C 23.4333 %
796 29-06-2019 00:00:00 24.38417 C 22.1750 %
797 30-06-2019 00:00:00 26.0575 C 22.2333 %
798 01-07-2019 00:00:00 23.3825 C 20.0000 %
799 02-07-2019 00:00:00 19.63333 C 21.8667 %
800 03-07-2019 00:00:00 18.14583 C 22.9833 %
Sensor: Nr:Datum:Temp:Feuchte:
Aussen-T/F 801 04-07-2019 00:00:00 18.95917 C 21.7583 %
802 05-07-2019 00:00:00 21.28 C 20.0000 %
803 06-07-2019 00:00:00 21.86 C 21.2917 %
804 07-07-2019 00:00:00 17.9975 C 24.5833 %
805 08-07-2019 00:00:00 14.77583 C 24.3917 %
806 09-07-2019 00:00:00 15.65583 C 24.6667 %
807 10-07-2019 00:00:00 17.64083 C 24.2083 %
808 11-07-2019 00:00:00 17.65083 C 31.2583 %
809 12-07-2019 00:00:00 17.16583 C 43.6333 %
810 13-07-2019 00:00:00 17.9575 C 34.1250 %
811 14-07-2019 00:00:00 17.12917 C 26.6667 %
812 15-07-2019 00:00:00 16.56667 C 21.0917 %
813 16-07-2019 00:00:00 16.26 C 28.0333 %
814 17-07-2019 00:00:00 17.56833 C 29.2083 %
815 18-07-2019 00:00:00 19.38333 C 28.1917 %
816 19-07-2019 00:00:00 20.12667 C 31.9750 %
817 20-07-2019 00:00:00 21.81667 C 30.3083 %
818 21-07-2019 00:00:00 22.37333 C 25.8833 %
819 22-07-2019 00:00:00 22.7225 C 26.2833 %
820 23-07-2019 00:00:00 25.34083 C 25.5333 %
821 24-07-2019 00:00:00 27.1975 C 24.2750 %
822 25-07-2019 00:00:00 28.90167 C 21.7333 %
823 26-07-2019 00:00:00 27.54417 C 21.2500 %
824 27-07-2019 00:00:00 23.4375 C 26.6833 %
825 28-07-2019 00:00:00 19.93083 C 38.1333 %
Sensor: Nr:Datum:Temp:Feuchte:
Aussen-T/F 826 29-07-2019 00:00:00 21.45583 C 29.3333 %
827 30-07-2019 00:00:00 22.35833 C 26.7167 %
828 31-07-2019 00:00:00 21.48417 C 20.5333 %
829 01-08-2019 00:00:00 19.83417 C 22.9750 %
830 02-08-2019 00:00:00 20.8775 C 22.8500 %
831 03-08-2019 00:00:00 20.77167 C 24.6333 %
832 04-08-2019 00:00:00 21.00667 C 28.3000 %
833 05-08-2019 00:00:00 22.56833 C 24.9167 %
834 06-08-2019 00:00:00 20.0075 C 30.3333 %
835 07-08-2019 00:00:00 19.10167 C 41.3833 %
836 08-08-2019 00:00:00 20.55667 C 30.6417 %
837 09-08-2019 00:00:00 19.73833 C 39.4583 %
838 10-08-2019 00:00:00 20.72917 C 37.6833 %
839 11-08-2019 00:00:00 17.03333 C 35.9000 %
840 12-08-2019 00:00:00 16.51583 C 38.9833 %
841 13-08-2019 00:00:00 16.10833 C 35.2833 %
842 14-08-2019 00:00:00 16.6875 C 34.0417 %
843 15-08-2019 00:00:00 17.20583 C 40.0250 %
844 16-08-2019 00:00:00 17.84 C 34.2250 %
845 17-08-2019 00:00:00 17.89333 C 38.0750 %
846 18-08-2019 00:00:00 19.71833 C 44.5000 %
847 19-08-2019 00:00:00 18.45167 C 33.8417 %
848 20-08-2019 00:00:00 15.91167 C 33.3250 %
849 21-08-2019 00:00:00 16.52917 C 33.4750 %
850 22-08-2019 00:00:00 17.12333 C 32.3667 %
Sensor: Nr:Datum:Temp:Feuchte:
Aussen-T/F 851 23-08-2019 00:00:00 18.31667 C 31.5083 %
852 24-08-2019 00:00:00 19.36333 C 30.9833 %
853 25-08-2019 00:00:00 21.54583 C 29.8917 %
854 26-08-2019 00:00:00 22.17 C 33.4833 %
855 27-08-2019 00:00:00 22.70333 C 35.1667 %
856 28-08-2019 00:00:00 23.4425 C 30.4583 %
857 29-08-2019 00:00:00 22.20333 C 28.3583 %
858 30-08-2019 00:00:00 21.07 C 29.2583 %
859 31-08-2019 00:00:00 21.975 C 30.7583 %
860 01-09-2019 00:00:00 18.8525 C 26.8333 %
861 02-09-2019 00:00:00 15.49333 C 28.2000 %
862 03-09-2019 00:00:00 15.72917 C 28.0833 %
863 04-09-2019 00:00:00 16.9525 C 33.9667 %
864 05-09-2019 00:00:00 15.59 C 26.2917 %
865 06-09-2019 00:00:00 13.58917 C 31.1917 %
866 07-09-2019 00:00:00 12.6975 C 39.5000 %
867 08-09-2019 00:00:00 12.7439 C 48.5935 %
868 09-09-2019 00:00:00 15.23733 C 38.6667 %
869 10-09-2019 00:00:00 12.20486 C 22.8264 %
870 11-09-2019 00:00:00 13.35556 C 20.8472 %
871 12-09-2019 00:00:00 19.325 C 20.0000 %
872 13-09-2019 00:00:00 17.86806 C 20.1111 %
873 14-09-2019 00:00:00 15.93333 C 22.4375 %
874 15-09-2019 00:00:00 15.65694 C 21.2778 %
875 16-09-2019 00:00:00 16.21389 C 20.0000 %
Sensor: Nr:Datum:Temp:Feuchte:
Aussen-T/F 876 17-09-2019 00:00:00 15.87708 C 20.0000 %
877 18-09-2019 00:00:00 11.47361 C 20.7917 %
878 19-09-2019 00:00:00 10.53333 C 21.8194 %
879 20-09-2019 00:00:00 10.80486 C 20.8472 %
880 21-09-2019 00:00:00 12.45278 C 20.6597 %
881 22-09-2019 00:00:00 14.78542 C 20.7500 %
882 23-09-2019 00:00:00 16.6875 C 22.1528 %
883 24-09-2019 00:00:00 13.94306 C 26.6319 %
884 25-09-2019 00:00:00 15.31806 C 25.0417 %
885 26-09-2019 00:00:00 16.10903 C 26.0000 %
886 27-09-2019 00:00:00 16.23333 C 23.7708 %
887 28-09-2019 00:00:00 15.40208 C 22.5833 %
888 29-09-2019 00:00:00 16.05972 C 21.6597 %
889 30-09-2019 00:00:00 15.48194 C 21.1319 %
890 01-10-2019 00:00:00 15.84375 C 23.4931 %
891 02-10-2019 00:00:00 12.57569 C 23.6111 %
892 03-10-2019 00:00:00 9.35625 C 27.6944 %
893 04-10-2019 00:00:00 10.03681 C 31.8403 %
894 05-10-2019 00:00:00 10.32986 C 26.5903 %
895 06-10-2019 00:00:00 7.85764 C 34.1250 %
896 07-10-2019 00:00:00 9.80764 C 31.8819 %
897 08-10-2019 00:00:00 12.35833 C 31.0694 %
898 09-10-2019 00:00:00 11.56667 C 27.7431 %
899 10-10-2019 00:00:00 11.49097 C 26.2153 %
900 11-10-2019 00:00:00 12.41458 C 28.8194 %
Sensor: Nr:Datum:Temp:Feuchte:
Aussen-T/F 901 12-10-2019 00:00:00 13.21111 C 29.6875 %
902 13-10-2019 00:00:00 16.35417 C 28.4722 %
903 14-10-2019 00:00:00 15.8125 C 27.6528 %
904 15-10-2019 00:00:00 13.94028 C 29.8611 %
905 16-10-2019 00:00:00 12.42153 C 29.2917 %
906 17-10-2019 00:00:00 14.32708 C 27.4167 %
907 18-10-2019 00:00:00 12.3125 C 29.7292 %
908 19-10-2019 00:00:00 12.78194 C 28.2083 %
909 20-10-2019 00:00:00 13.0875 C 34.7778 %
910 21-10-2019 00:00:00 13.30486 C 29.2014 %
911 22-10-2019 00:00:00 11.45 C 27.8819 %
912 23-10-2019 00:00:00 10.68403 C 31.1181 %
913 24-10-2019 00:00:00 13.85208 C 27.9236 %
914 25-10-2019 00:00:00 13.1625 C 24.9444 %
915 26-10-2019 00:00:00 12.72639 C 27.5417 %
916 27-10-2019 00:00:00 9.68467 C 30.8733 %
917 28-10-2019 00:00:00 5.91597 C 35.2014 %
918 29-10-2019 00:00:00 6.21181 C 29.3264 %
919 30-10-2019 00:00:00 2.93333 C 34.5347 %
920 31-10-2019 00:00:00 1.41875 C 34.8333 %
921 01-11-2019 00:00:00 5.44792 C 36.7292 %
922 02-11-2019 00:00:00 12.8125 C 27.6458 %
923 03-11-2019 00:00:00 11.45069 C 29.7639 %
924 04-11-2019 00:00:00 9.88542 C 30.2153 %
925 05-11-2019 00:00:00 9.25069 C 27.4306 %
Sensor: Nr:Datum:Temp:Feuchte:
Aussen-T/F 926 06-11-2019 00:00:00 8.33542 C 34.7014 %
927 07-11-2019 00:00:00 7.30278 C 33.8333 %
928 08-11-2019 00:00:00 4.29028 C 37.7153 %
929 09-11-2019 00:00:00 4.26806 C 33.1111 %
930 10-11-2019 00:00:00 2.51319 C 34.9861 %
931 11-11-2019 00:00:00 4.2 C 27.4792 %
932 12-11-2019 00:00:00 5.41667 C 25.4792 %
933 13-11-2019 00:00:00 4.93472 C 22.9861 %
934 14-11-2019 00:00:00 4.86042 C 26.9861 %
935 15-11-2019 00:00:00 4.08472 C 26.3333 %
936 16-11-2019 00:00:00 1.19444 C 38.8125 %
937 17-11-2019 00:00:00 2.39861 C 40.2708 %
938 18-11-2019 00:00:00 3.51667 C 36.2847 %
939 19-11-2019 00:00:00 3.06736 C 36.5833 %
940 20-11-2019 00:00:00 0.75972 C 37.8403 %
941 21-11-2019 00:00:00 1.18951 C 39.3846 %
942 22-11-2019 00:00:00 3.65972 C 35.6806 %
943 23-11-2019 00:00:00 4.64653 C 33.3889 %
944 24-11-2019 00:00:00 1.99861 C 41.4722 %
945 25-11-2019 00:00:00 4.16319 C 39.3681 %
946 26-11-2019 00:00:00 7.75903 C 34.8472 %
947 27-11-2019 00:00:00 9.72083 C 30.6875 %
948 28-11-2019 00:00:00 10.55833 C 22.1319 %
949 29-11-2019 00:00:00 5.75486 C 30.7639 %
950 30-11-2019 00:00:00 0.48194 C 42.0972 %
Sensor: Nr:Datum:Temp:Feuchte:
Aussen-T/F 951 01-12-2019 00:00:00 1.14236 C 33.0139 %
952 02-12-2019 00:00:00 1.20556 C 36.2986 %
953 03-12-2019 00:00:00 3.97431 C 39.2292 %
954 04-12-2019 00:00:00 0.41389 C 41.6111 %
955 05-12-2019 00:00:00 -2.03194 C 42.0972 %
956 06-12-2019 00:00:00 2.6125 C 34.4722 %
957 07-12-2019 00:00:00 8.20694 C 27.7292 %
958 08-12-2019 00:00:00 9.69931 C 24.2778 %
959 09-12-2019 00:00:00 7.09444 C 23.9722 %
960 10-12-2019 00:00:00 2.37361 C 34.0000 %
961 11-12-2019 00:00:00 3.12569 C 39.3056 %
962 12-12-2019 00:00:00 2.64931 C 37.2500 %
963 13-12-2019 00:00:00 3.25278 C 34.0069 %
964 14-12-2019 00:00:00 6.22222 C 28.0625 %
965 15-12-2019 00:00:00 7.24792 C 30.8958 %
966 16-12-2019 00:00:00 7.47361 C 39.2986 %
967 17-12-2019 00:00:00 9.69514 C 31.9653 %
968 18-12-2019 00:00:00 6.95069 C 37.4792 %
969 19-12-2019 00:00:00 4.60972 C 40.5417 %
970 20-12-2019 00:00:00 6.87778 C 35.7847 %
971 21-12-2019 00:00:00 6.42778 C 32.4306 %
972 22-12-2019 00:00:00 7.57917 C 31.0556 %
973 23-12-2019 00:00:00 7.34861 C 28.6111 %
974 24-12-2019 00:00:00 7.20278 C 29.9097 %
975 25-12-2019 00:00:00 6.91944 C 32.8333 %
Sensor: Nr:Datum:Temp:Feuchte:
Aussen-T/F 976 26-12-2019 00:00:00 4.25278 C 40.6250 %
977 27-12-2019 00:00:00 4.41181 C 36.8819 %
978 28-12-2019 00:00:00 -1.22431 C 42.5000 %
979 29-12-2019 00:00:00 -2.07708 C 39.8819 %
980 30-12-2019 00:00:00 -1.99931 C 39.1319 %
981 31-12-2019 00:00:00 -0.41736 C 39.5556 %
982 01-01-2020 00:00:00 -0.10764 C 41.3403 %
983 02-01-2020 00:00:00 0.98958 C 39.7014 %
984 03-01-2020 00:00:00 7.00972 C 33.4653 %
985 04-01-2020 00:00:00 4.78264 C 32.5903 %
986 05-01-2020 00:00:00 5.21806 C 35.8750 %
987 06-01-2020 00:00:00 2.11667 C 38.1667 %
988 07-01-2020 00:00:00 4.43611 C 34.6944 %
989 08-01-2020 00:00:00 7.71389 C 34.4167 %
990 09-01-2020 00:00:00 10.33542 C 35.2292 %
991 10-01-2020 00:00:00 8.27917 C 30.8958 %
992 11-01-2020 00:00:00 3.61806 C 33.7639 %
993 12-01-2020 00:00:00 4.57083 C 30.3889 %
994 13-01-2020 00:00:00 5.88472 C 35.0903 %
995 14-01-2020 00:00:00 9.28264 C 24.1181 %
996 15-01-2020 00:00:00 10.27083 C 23.7500 %
997 16-01-2020 00:00:00 7.07569 C 40.1944 %
998 17-01-2020 00:00:00 5.27986 C 39.1944 %
999 18-01-2020 00:00:00 3.79028 C 32.6042 %
1000 19-01-2020 00:00:00 3.01389 C 40.8194 %
Sensor: Nr:Datum:Temp:Feuchte:
Aussen-T/F 1001 20-01-2020 00:00:00 1.64861 C 39.3889 %
1002 21-01-2020 00:00:00 -2.675 C 44.7986 %
1003 22-01-2020 00:00:00 -1.95347 C 44.7153 %
1004 23-01-2020 00:00:00 0.53819 C 43.6458 %
1005 24-01-2020 00:00:00 0.81319 C 35.7222 %
1006 25-01-2020 00:00:00 1.99236 C 39.2014 %
1007 26-01-2020 00:00:00 2.13056 C 41.5625 %
1008 27-01-2020 00:00:00 5.48542 C 39.8264 %
1009 28-01-2020 00:00:00 5.07708 C 30.3750 %
1010 29-01-2020 00:00:00 4.20764 C 29.8611 %
1011 30-01-2020 00:00:00 7.57569 C 29.5694 %
1012 31-01-2020 00:00:00 12.86181 C 27.9167 %
1013 01-02-2020 00:00:00 11.16597 C 32.0972 %
1014 02-02-2020 00:00:00 9.925 C 31.1319 %
1015 03-02-2020 00:00:00 10.19236 C 29.5139 %
1016 04-02-2020 00:00:00 4.29514 C 36.4097 %
1017 05-02-2020 00:00:00 3.05069 C 37.1458 %
1018 06-02-2020 00:00:00 0.04514 C 42.7500 %
1019 07-02-2020 00:00:00 -0.30764 C 42.8264 %
1020 08-02-2020 00:00:00 1.01389 C 43.0069 %
1021 09-02-2020 00:00:00 8.36458 C 32.5764 %
1022 10-02-2020 00:00:00 7.85 C 31.3611 %
1023 11-02-2020 00:00:00 5.29167 C 24.6597 %
1024 12-02-2020 00:00:00 4.32083 C 30.5972 %
1025 13-02-2020 00:00:00 3.32917 C 42.1250 %
Sensor: Nr:Datum:Temp:Feuchte:
Aussen-T/F 1026 14-02-2020 00:00:00 5.46458 C 39.2639 %
1027 15-02-2020 00:00:00 5.89931 C 38.0278 %
1028 16-02-2020 00:00:00 14.44931 C 23.2431 %
1029 17-02-2020 00:00:00 8.25903 C 32.4167 %
1030 18-02-2020 00:00:00 6.89097 C 31.0347 %
1031 19-02-2020 00:00:00 5.73889 C 30.1875 %
1032 20-02-2020 00:00:00 7.7125 C 32.9722 %
1033 21-02-2020 00:00:00 4.71042 C 33.5972 %
1034 22-02-2020 00:00:00 7.67986 C 30.0347 %
1035 23-02-2020 00:00:00 10.01389 C 35.3403 %
1036 24-02-2020 00:00:00 7.74653 C 36.3194 %
1037 25-02-2020 00:00:00 8.81597 C 32.2778 %
1038 26-02-2020 00:00:00 4.37431 C 33.6806 %
1039 27-02-2020 00:00:00 2.22153 C 41.6806 %
1040 28-02-2020 00:00:00 3.52431 C 38.4514 %
1041 29-02-2020 00:00:00 8.60556 C 34.8889 %
1042 01-03-2020 00:00:00 7.15694 C 36.0000 %
1043 02-03-2020 00:00:00 5.99375 C 40.1667 %
1044 03-03-2020 00:00:00 4.26806 C 39.6458 %
1045 04-03-2020 00:00:00 5.28958 C 37.5764 %
1046 05-03-2020 00:00:00 5.45764 C 43.0833 %
1047 06-03-2020 00:00:00 5.63958 C 40.4931 %
1048 07-03-2020 00:00:00 6.26458 C 33.7569 %
1049 08-03-2020 00:00:00 9.46458 C 32.2361 %
1050 09-03-2020 00:00:00 7.81875 C 35.4514 %
Sensor: Nr:Datum:Temp:Feuchte:
Aussen-T/F 1051 10-03-2020 00:00:00 9.06181 C 39.4514 %
1052 11-03-2020 00:00:00 14.0375 C 35.2639 %
1053 12-03-2020 00:00:00 11.01597 C 30.3681 %
1054 13-03-2020 00:00:00 6.99236 C 33.4236 %
1055 14-03-2020 00:00:00 5.89028 C 38.1667 %
1056 15-03-2020 00:00:00 9.14653 C 32.2153 %
1057 16-03-2020 00:00:00 9.43264 C 35.6667 %
1058 17-03-2020 00:00:00 12.02708 C 33.7847 %
1059 18-03-2020 00:00:00 9.92639 C 36.2153 %
1060 19-03-2020 00:00:00 12.58194 C 32.0417 %
1061 20-03-2020 00:00:00 10.52657 C 36.2308 %
1062 21-03-2020 00:00:00 5.89653 C 34.6597 %
1063 22-03-2020 00:00:00 4.30139 C 28.5278 %
1064 23-03-2020 00:00:00 3.12292 C 27.0764 %
1065 24-03-2020 00:00:00 2.82431 C 27.8403 %
1066 25-03-2020 00:00:00 3.67014 C 25.0486 %
1067 26-03-2020 00:00:00 5.25486 C 23.4931 %
1068 27-03-2020 00:00:00 8.10139 C 29.8819 %
1069 28-03-2020 00:00:00 9.69236 C 30.9306 %
1070 29-03-2020 00:00:00 5.0942 C 30.1377 %
1071 30-03-2020 00:00:00 2.89028 C 29.9167 %
1072 31-03-2020 00:00:00 5.79792 C 30.1528 %
1073 01-04-2020 00:00:00 4.16111 C 29.6944 %
1074 02-04-2020 00:00:00 5.26806 C 31.1944 %
1075 03-04-2020 00:00:00 7.93542 C 28.5069 %
Sensor: Nr:Datum:Temp:Feuchte:
Aussen-T/F 1076 04-04-2020 00:00:00 6.89375 C 31.8958 %
1077 05-04-2020 00:00:00 9.74514 C 32.0625 %
1078 06-04-2020 00:00:00 12.17708 C 29.7431 %
1079 07-04-2020 00:00:00 14.2875 C 28.9028 %
1080 08-04-2020 00:00:00 15.02153 C 31.1528 %
1081 09-04-2020 00:00:00 15.89514 C 27.6458 %
1082 10-04-2020 00:00:00 14.80972 C 29.8333 %
1083 11-04-2020 00:00:00 14.775 C 25.4861 %
1084 12-04-2020 00:00:00 15.71319 C 27.3056 %
1085 13-04-2020 00:00:00 9.43542 C 29.6944 %
1086 14-04-2020 00:00:00 6.54583 C 28.1042 %
1087 15-04-2020 00:00:00 9.17222 C 30.8750 %
1088 16-04-2020 00:00:00 13.09792 C 29.6667 %
1089 17-04-2020 00:00:00 15.68056 C 30.2500 %
1090 18-04-2020 00:00:00 14.81597 C 32.5000 %
1091 19-04-2020 00:00:00 13.35694 C 32.8889 %
1092 20-04-2020 00:00:00 12.80069 C 22.9861 %
1093 21-04-2020 00:00:00 13.68472 C 21.3889 %
1094 22-04-2020 00:00:00 14.69375 C 23.2153 %
1095 23-04-2020 00:00:00 14.90347 C 25.2917 %
1096 24-04-2020 00:00:00 14.72361 C 27.0278 %
Sensor: Nr:Datum:Temp:Feuchte:
G-T/H 1 25-04-2017 00:00:00 11.07395 C 57.7143 %
2 26-04-2017 00:00:00 10.9975 C 52.8000 %
3 27-04-2017 00:00:00 10.80167 C 55.5250 %
4 28-04-2017 00:00:00 9.695 C 54.5000 %
5 29-04-2017 00:00:00 10.51083 C 59.0833 %
6 30-04-2017 00:00:00 11.60583 C 55.6167 %
7 01-05-2017 00:00:00 12.7 C 56.0000 %
8 02-05-2017 00:00:00 11.525 C 63.9432 %
9 03-05-2017 00:00:00 11.48417 C 65.4750 %
10 04-05-2017 00:00:00 12.02333 C 66.8667 %
11 05-05-2017 00:00:00 12.46583 C 66.8917 %
12 06-05-2017 00:00:00 12.505 C 65.2333 %
13 07-05-2017 00:00:00 13.83043 C 67.2696 %
14 08-05-2017 00:00:00 12.83417 C 66.4333 %
15 09-05-2017 00:00:00 12.20583 C 62.3250 %
16 10-05-2017 00:00:00 12.52917 C 54.6833 %
17 11-05-2017 00:00:00 13.12917 C 60.2667 %
18 12-05-2017 00:00:00 14.3375 C 64.2333 %
19 13-05-2017 00:00:00 14.86667 C 65.6583 %
20 14-05-2017 00:00:00 15.34083 C 65.8667 %
21 15-05-2017 00:00:00 16.35667 C 54.4250 %
22 16-05-2017 00:00:00 18.42417 C 50.3083 %
23 17-05-2017 00:00:00 19.76083 C 51.8500 %
24 18-05-2017 00:00:00 18.36833 C 59.9083 %
25 19-05-2017 00:00:00 16.6075 C 64.9333 %
Sensor: Nr:Datum:Temp:Feuchte:
G-T/H 26 20-05-2017 00:00:00 14.935 C 64.1833 %
27 21-05-2017 00:00:00 15.3875 C 58.0667 %
28 22-05-2017 00:00:00 16.8975 C 56.7000 %
29 23-05-2017 00:00:00 17.30167 C 60.5667 %
30 24-05-2017 00:00:00 17.77333 C 59.5750 %
31 25-05-2017 00:00:00 17.38 C 63.0583 %
32 26-05-2017 00:00:00 18.09583 C 61.1583 %
33 27-05-2017 00:00:00 17.95583 C 63.3917 %
34 28-05-2017 00:00:00 18.6625 C 65.0333 %
35 29-05-2017 00:00:00 22.53667 C 59.7333 %
36 30-05-2017 00:00:00 22.135 C 60.5250 %
37 31-05-2017 00:00:00 19.19583 C 54.8917 %
38 01-06-2017 00:00:00 19.02333 C 60.4250 %
39 02-06-2017 00:00:00 19.42667 C 64.1667 %
40 03-06-2017 00:00:00 18.96167 C 68.0500 %
41 04-06-2017 00:00:00 18.245 C 68.2333 %
42 05-06-2017 00:00:00 17.78167 C 63.8583 %
43 06-06-2017 00:00:00 17.53167 C 62.7417 %
44 07-06-2017 00:00:00 16.31 C 63.1083 %
45 08-06-2017 00:00:00 17.10583 C 63.0167 %
46 09-06-2017 00:00:00 17.65833 C 65.4167 %
47 10-06-2017 00:00:00 17.03667 C 64.8083 %
48 11-06-2017 00:00:00 17.98917 C 66.8667 %
49 12-06-2017 00:00:00 20.2225 C 51.9750 %
50 13-06-2017 00:00:00 19.605 C 52.3167 %
Sensor: Nr:Datum:Temp:Feuchte:
G-T/H 51 14-06-2017 00:00:00 20.2375 C 52.8333 %
52 15-06-2017 00:00:00 22.41083 C 52.1917 %
53 16-06-2017 00:00:00 21.05417 C 50.7750 %
54 17-06-2017 00:00:00 19.55083 C 56.9583 %
55 18-06-2017 00:00:00 19.47917 C 61.1333 %
56 19-06-2017 00:00:00 21.37083 C 53.8417 %
57 20-06-2017 00:00:00 23.81417 C 48.4333 %
58 21-06-2017 00:00:00 23.19167 C 55.3333 %
59 22-06-2017 00:00:00 24.54167 C 57.7417 %
60 23-06-2017 00:00:00 23.06 C 57.7583 %
61 24-06-2017 00:00:00 22.64 C 51.3500 %
62 25-06-2017 00:00:00 21.49083 C 54.8583 %
63 26-06-2017 00:00:00 21.5775 C 55.2833 %
64 27-06-2017 00:00:00 20.69417 C 59.6083 %
65 28-06-2017 00:00:00 19.86 C 64.0167 %
66 29-06-2017 00:00:00 19.49417 C 65.1083 %
67 30-06-2017 00:00:00 19.17167 C 60.7667 %
68 01-07-2017 00:00:00 18.81833 C 64.2833 %
69 02-07-2017 00:00:00 18.1925 C 66.6917 %
70 03-07-2017 00:00:00 19.315 C 56.5417 %
71 04-07-2017 00:00:00 20.50083 C 54.7667 %
72 05-07-2017 00:00:00 21.10917 C 57.5583 %
73 06-07-2017 00:00:00 21.4425 C 61.7000 %
74 07-07-2017 00:00:00 21.30333 C 64.3833 %
75 08-07-2017 00:00:00 22.9425 C 56.5250 %
Sensor: Nr:Datum:Temp:Feuchte:
G-T/H 76 09-07-2017 00:00:00 22.685 C 59.5417 %
77 10-07-2017 00:00:00 21.98167 C 63.7417 %
78 11-07-2017 00:00:00 21.20417 C 60.4000 %
79 12-07-2017 00:00:00 20.39167 C 63.4250 %
80 13-07-2017 00:00:00 18.97917 C 57.3833 %
81 14-07-2017 00:00:00 18.96417 C 57.4250 %
82 15-07-2017 00:00:00 18.67083 C 60.6333 %
83 16-07-2017 00:00:00 19.535 C 63.6583 %
84 17-07-2017 00:00:00 19.89917 C 65.6333 %
85 18-07-2017 00:00:00 21.48667 C 62.7583 %
86 19-07-2017 00:00:00 23.825 C 58.2333 %
87 20-07-2017 00:00:00 22.49083 C 62.1083 %
88 21-07-2017 00:00:00 21.79917 C 56.1083 %
89 22-07-2017 00:00:00 22.77167 C 60.8833 %
90 23-07-2017 00:00:00 20.45167 C 59.6000 %
91 24-07-2017 00:00:00 19.83667 C 60.9500 %
92 25-07-2017 00:00:00 18.2725 C 64.9333 %
93 26-07-2017 00:00:00 17.95417 C 67.3667 %
94 27-07-2017 00:00:00 18.53667 C 68.7167 %
95 28-07-2017 00:00:00 18.61833 C 68.6833 %
96 29-07-2017 00:00:00 19.14917 C 68.9333 %
97 30-07-2017 00:00:00 20.87667 C 66.4833 %
98 31-07-2017 00:00:00 21.91167 C 61.1500 %
99 01-08-2017 00:00:00 20.985 C 66.8500 %
100 02-08-2017 00:00:00 21.5925 C 67.6250 %
Sensor: Nr:Datum:Temp:Feuchte:
G-T/H 101 03-08-2017 00:00:00 22.08 C 67.0000 %
102 04-08-2017 00:00:00 21.2975 C 66.9500 %
103 05-08-2017 00:00:00 21.27333 C 64.2583 %
104 06-08-2017 00:00:00 20.1425 C 61.5500 %
105 07-08-2017 00:00:00 19.51083 C 54.8250 %
106 08-08-2017 00:00:00 19.4725 C 62.0000 %
107 09-08-2017 00:00:00 19.2825 C 61.9750 %
108 10-08-2017 00:00:00 18.88083 C 65.6083 %
109 11-08-2017 00:00:00 17.85167 C 68.4083 %
110 12-08-2017 00:00:00 17.38667 C 69.6917 %
111 13-08-2017 00:00:00 17.925 C 70.8917 %
112 14-08-2017 00:00:00 19.18583 C 69.3417 %
113 15-08-2017 00:00:00 19.95167 C 75.4000 %
114 16-08-2017 00:00:00 20.395 C 70.4750 %
115 17-08-2017 00:00:00 20.77833 C 67.9583 %
116 18-08-2017 00:00:00 20.07417 C 69.9500 %
117 19-08-2017 00:00:00 18.63167 C 65.2583 %
118 20-08-2017 00:00:00 18.18833 C 65.5833 %
119 21-08-2017 00:00:00 18.33833 C 61.8250 %
120 22-08-2017 00:00:00 18.3375 C 62.2833 %
121 23-08-2017 00:00:00 19.39 C 63.6250 %
122 24-08-2017 00:00:00 19.39667 C 66.6750 %
123 25-08-2017 00:00:00 19.01417 C 68.4583 %
124 26-08-2017 00:00:00 19.33833 C 70.7917 %
125 27-08-2017 00:00:00 19.525 C 71.7250 %
Sensor: Nr:Datum:Temp:Feuchte:
G-T/H 126 28-08-2017 00:00:00 20.30583 C 68.8833 %
127 29-08-2017 00:00:00 21.09333 C 67.8833 %
128 30-08-2017 00:00:00 20.41167 C 70.1917 %
129 31-08-2017 00:00:00 19.86975 C 70.1176 %
130 01-09-2017 00:00:00 18.04083 C 64.9250 %
131 02-09-2017 00:00:00 17.755 C 68.6500 %
132 03-09-2017 00:00:00 16.90667 C 68.1250 %
133 04-09-2017 00:00:00 16.00917 C 69.3750 %
134 05-09-2017 00:00:00 18.28917 C 72.6000 %
135 06-09-2017 00:00:00 18.70833 C 64.8917 %
136 07-09-2017 00:00:00 17.72833 C 62.5167 %
137 08-09-2017 00:00:00 17.6225 C 64.3417 %
138 09-09-2017 00:00:00 17.3775 C 67.9250 %
139 10-09-2017 00:00:00 16.50417 C 66.3083 %
140 11-09-2017 00:00:00 16.29333 C 68.5500 %
141 12-09-2017 00:00:00 16.13083 C 70.5250 %
142 13-09-2017 00:00:00 15.99917 C 71.1667 %
143 14-09-2017 00:00:00 15.7775 C 71.3250 %
144 15-09-2017 00:00:00 15.14 C 71.7083 %
145 16-09-2017 00:00:00 14.15 C 67.6833 %
146 17-09-2017 00:00:00 14.06833 C 69.8750 %
147 18-09-2017 00:00:00 13.68417 C 70.3917 %
148 19-09-2017 00:00:00 14.2875 C 73.3667 %
149 20-09-2017 00:00:00 14.18167 C 72.9250 %
150 21-09-2017 00:00:00 14.33333 C 68.9000 %
Sensor: Nr:Datum:Temp:Feuchte:
G-T/H 151 22-09-2017 00:00:00 14.20083 C 71.1333 %
152 23-09-2017 00:00:00 14.86583 C 71.6917 %
153 24-09-2017 00:00:00 13.5 C 74.4750 %
154 25-09-2017 00:00:00 14.49667 C 74.4000 %
155 26-09-2017 00:00:00 14.90833 C 74.1417 %
156 27-09-2017 00:00:00 15.24333 C 75.2000 %
157 28-09-2017 00:00:00 15.29833 C 75.7917 %
158 29-09-2017 00:00:00 16.4625 C 76.9750 %
159 30-09-2017 00:00:00 16.51167 C 76.8667 %
160 01-10-2017 00:00:00 15.07167 C 73.4917 %
161 02-10-2017 00:00:00 14.96167 C 75.8333 %
162 03-10-2017 00:00:00 15.05583 C 75.3167 %
163 04-10-2017 00:00:00 14.14417 C 72.4833 %
164 05-10-2017 00:00:00 14.39917 C 74.4417 %
165 06-10-2017 00:00:00 13.515 C 72.0000 %
166 07-10-2017 00:00:00 13.36583 C 74.1000 %
167 08-10-2017 00:00:00 13.59833 C 76.1167 %
168 09-10-2017 00:00:00 13.71417 C 76.4750 %
169 10-10-2017 00:00:00 14.10667 C 77.2250 %
170 11-10-2017 00:00:00 14.48833 C 77.7500 %
171 12-10-2017 00:00:00 14.45833 C 77.2083 %
172 13-10-2017 00:00:00 14.39417 C 77.1167 %
173 14-10-2017 00:00:00 14.55667 C 77.2000 %
174 15-10-2017 00:00:00 14.22167 C 77.1917 %
175 16-10-2017 00:00:00 14.72417 C 80.6250 %
Sensor: Nr:Datum:Temp:Feuchte:
G-T/H 176 17-10-2017 00:00:00 14.50583 C 80.0333 %
177 18-10-2017 00:00:00 14.23 C 79.1833 %
178 19-10-2017 00:00:00 13.8025 C 76.9750 %
179 20-10-2017 00:00:00 14.11261 C 77.8235 %
180 21-10-2017 00:00:00 13.58417 C 75.6250 %
181 22-10-2017 00:00:00 13.64333 C 74.5083 %
182 23-10-2017 00:00:00 13.15167 C 73.8667 %
183 24-10-2017 00:00:00 13.7125 C 77.3167 %
184 25-10-2017 00:00:00 14.60167 C 78.0000 %
185 26-10-2017 00:00:00 14.7325 C 78.0000 %
186 27-10-2017 00:00:00 14.395 C 76.2583 %
187 28-10-2017 00:00:00 13.38917 C 71.6000 %
188 29-10-2017 00:00:00 13.2736 C 70.4000 %
189 30-10-2017 00:00:00 11.94167 C 67.1167 %
190 31-10-2017 00:00:00 11.315 C 67.7083 %
191 01-11-2017 00:00:00 11.75833 C 71.3750 %
192 02-11-2017 00:00:00 11.43667 C 71.0500 %
193 03-11-2017 00:00:00 11.36333 C 71.6167 %
194 04-11-2017 00:00:00 11.05083 C 71.6417 %
195 05-11-2017 00:00:00 11.7925 C 73.8417 %
196 06-11-2017 00:00:00 10.80417 C 68.9083 %
197 07-11-2017 00:00:00 10.16167 C 68.1500 %
198 08-11-2017 00:00:00 10.51583 C 72.8417 %
199 09-11-2017 00:00:00 10.89833 C 74.4833 %
200 10-11-2017 00:00:00 10.70833 C 72.4333 %
Sensor: Nr:Datum:Temp:Feuchte:
G-T/H 201 11-11-2017 00:00:00 10.25917 C 71.3500 %
202 12-11-2017 00:00:00 9.99417 C 71.9333 %
203 13-11-2017 00:00:00 9.82667 C 72.4833 %
204 14-11-2017 00:00:00 9.44833 C 71.5833 %
205 15-11-2017 00:00:00 9.78417 C 73.4833 %
206 16-11-2017 00:00:00 9.8675 C 71.0000 %
207 17-11-2017 00:00:00 10.21917 C 72.6917 %
208 18-11-2017 00:00:00 8.93333 C 68.2833 %
209 19-11-2017 00:00:00 9.44917 C 70.7667 %
210 20-11-2017 00:00:00 9.4175 C 70.1500 %
211 21-11-2017 00:00:00 10.07833 C 73.5833 %
212 22-11-2017 00:00:00 10.72 C 73.9917 %
213 23-11-2017 00:00:00 10.0175 C 71.3000 %
214 24-11-2017 00:00:00 11.32583 C 75.4750 %
215 25-11-2017 00:00:00 10.815 C 70.9083 %
216 26-11-2017 00:00:00 9.25 C 65.7167 %
217 27-11-2017 00:00:00 9.09917 C 68.4083 %
218 28-11-2017 00:00:00 9.38167 C 70.0917 %
219 29-11-2017 00:00:00 8.70583 C 68.4167 %
220 30-11-2017 00:00:00 8.38083 C 67.8167 %
221 01-12-2017 00:00:00 7.8275 C 66.9750 %
222 02-12-2017 00:00:00 6.8025 C 64.3667 %
223 03-12-2017 00:00:00 7.2 C 63.1583 %
224 04-12-2017 00:00:00 7.5275 C 69.7417 %
225 05-12-2017 00:00:00 8.31833 C 73.2750 %
Sensor: Nr:Datum:Temp:Feuchte:
G-T/H 226 06-12-2017 00:00:00 8.98333 C 73.6833 %
227 07-12-2017 00:00:00 8.76667 C 67.2083 %
228 08-12-2017 00:00:00 8.66917 C 66.2417 %
229 09-12-2017 00:00:00 7.4925 C 59.9167 %
230 10-12-2017 00:00:00 7.18333 C 64.1750 %
231 11-12-2017 00:00:00 7.94417 C 72.5667 %
232 12-12-2017 00:00:00 8.19083 C 68.4083 %
233 13-12-2017 00:00:00 7.93917 C 67.1333 %
234 14-12-2017 00:00:00 7.92667 C 69.1000 %
235 15-12-2017 00:00:00 7.94167 C 70.5000 %
236 16-12-2017 00:00:00 7.925 C 71.0833 %
237 17-12-2017 00:00:00 7.8375 C 69.7667 %
238 18-12-2017 00:00:00 7.10333 C 67.6500 %
239 19-12-2017 00:00:00 7.60417 C 70.4667 %
240 20-12-2017 00:00:00 8.29083 C 73.0000 %
241 21-12-2017 00:00:00 9.43333 C 74.8833 %
242 22-12-2017 00:00:00 10.32333 C 75.8833 %
243 23-12-2017 00:00:00 10.45667 C 76.0750 %
244 24-12-2017 00:00:00 10.61417 C 75.9000 %
245 25-12-2017 00:00:00 10.30833 C 71.7667 %
246 26-12-2017 00:00:00 9.0975 C 68.1083 %
247 27-12-2017 00:00:00 8.905 C 71.4083 %
248 28-12-2017 00:00:00 8.96167 C 70.6417 %
249 29-12-2017 00:00:00 14.36852 C 70.8611 %
250 30-12-2017 00:00:00 8.1925 C 73.4750 %
Sensor: Nr:Datum:Temp:Feuchte:
G-T/H 251 31-12-2017 00:00:00 10.73 C 74.9167 %
252 01-01-2018 00:00:00 10.91333 C 70.9167 %
253 02-01-2018 00:00:00 9.93833 C 71.7000 %
254 03-01-2018 00:00:00 9.98417 C 71.9333 %
255 04-01-2018 00:00:00 9.81167 C 73.7667 %
256 05-01-2018 00:00:00 10.06833 C 72.5333 %
257 06-01-2018 00:00:00 9.95417 C 74.1667 %
258 07-01-2018 00:00:00 9.5275 C 72.0083 %
259 08-01-2018 00:00:00 8.9575 C 69.3000 %
260 09-01-2018 00:00:00 8.81583 C 71.4583 %
261 10-01-2018 00:00:00 9.03917 C 73.1917 %
262 11-01-2018 00:00:00 9.4725 C 74.4333 %
263 12-01-2018 00:00:00 9.7375 C 75.0000 %
264 13-01-2018 00:00:00 9.48 C 71.6333 %
265 14-01-2018 00:00:00 8.7325 C 64.1833 %
266 15-01-2018 00:00:00 8.00083 C 65.2500 %
267 16-01-2018 00:00:00 8.6025 C 70.4000 %
268 17-01-2018 00:00:00 8.19 C 66.7833 %
269 18-01-2018 00:00:00 8.2875 C 68.1000 %
270 19-01-2018 00:00:00 8.47333 C 67.2417 %
271 20-01-2018 00:00:00 7.515 C 67.7833 %
272 21-01-2018 00:00:00 7.5275 C 70.9250 %
273 22-01-2018 00:00:00 7.75 C 71.9417 %
274 23-01-2018 00:00:00 8.69492 C 73.4661 %
275 24-01-2018 00:00:00 9.75556 C 74.8120 %
Sensor: Nr:Datum:Temp:Feuchte:
G-T/H 276 25-01-2018 00:00:00 10.6075 C 75.1917 %
277 26-01-2018 00:00:00 10.3125 C 74.1917 %
278 27-01-2018 00:00:00 9.54 C 72.2583 %
279 28-01-2018 00:00:00 9.4625 C 73.1917 %
280 29-01-2018 00:00:00 10.13833 C 74.2667 %
281 30-01-2018 00:00:00 9.76167 C 71.3917 %
282 31-01-2018 00:00:00 9.43 C 72.7083 %
283 01-02-2018 00:00:00 8.55 C 67.8083 %
284 02-02-2018 00:00:00 7.83917 C 68.3833 %
285 03-02-2018 00:00:00 7.98992 C 68.2521 %
286 04-02-2018 00:00:00 7.4 C 63.4333 %
287 05-02-2018 00:00:00 6.47 C 60.2917 %
288 06-02-2018 00:00:00 6.30833 C 61.8333 %
289 07-02-2018 00:00:00 6.2075 C 63.0250 %
290 08-02-2018 00:00:00 5.975 C 61.9833 %
291 09-02-2018 00:00:00 5.43333 C 63.6917 %
292 10-02-2018 00:00:00 6.105 C 66.3083 %
293 11-02-2018 00:00:00 6.99167 C 66.3833 %
294 12-02-2018 00:00:00 7.07833 C 64.5250 %
295 13-02-2018 00:00:00 6.335 C 60.4167 %
296 14-02-2018 00:00:00 5.87917 C 61.6500 %
297 15-02-2018 00:00:00 5.88583 C 66.8833 %
298 16-02-2018 00:00:00 6.29667 C 70.6750 %
299 17-02-2018 00:00:00 6.07083 C 67.1000 %
300 18-02-2018 00:00:00 5.89667 C 66.5500 %
Sensor: Nr:Datum:Temp:Feuchte:
G-T/H 301 19-02-2018 00:00:00 5.89083 C 68.3167 %
302 20-02-2018 00:00:00 6.01 C 66.1333 %
303 21-02-2018 00:00:00 5.89083 C 63.8500 %
304 22-02-2018 00:00:00 5.73333 C 61.2667 %
305 23-02-2018 00:00:00 5.48583 C 60.5583 %
306 24-02-2018 00:00:00 5.12583 C 59.3667 %
307 25-02-2018 00:00:00 4.93667 C 56.8667 %
308 26-02-2018 00:00:00 4.61167 C 55.2417 %
309 27-02-2018 00:00:00 4.5275 C 52.9667 %
310 28-02-2018 00:00:00 4.28667 C 51.9750 %
311 01-03-2018 00:00:00 4.305 C 53.0333 %
312 02-03-2018 00:00:00 4.77417 C 54.7917 %
313 03-03-2018 00:00:00 5.21917 C 60.2833 %
314 04-03-2018 00:00:00 6.01083 C 65.3000 %
315 05-03-2018 00:00:00 7.26 C 67.7083 %
316 06-03-2018 00:00:00 7.275 C 64.2583 %
317 07-03-2018 00:00:00 8.05833 C 67.2083 %
318 08-03-2018 00:00:00 8.30667 C 69.2500 %
319 09-03-2018 00:00:00 8.13 C 70.0750 %
320 10-03-2018 00:00:00 8.92167 C 72.5500 %
321 11-03-2018 00:00:00 10.33 C 74.6417 %
322 12-03-2018 00:00:00 10.33667 C 74.2417 %
323 13-03-2018 00:00:00 10.06083 C 73.3417 %
324 14-03-2018 00:00:00 9.31667 C 70.8667 %
325 15-03-2018 00:00:00 8.67083 C 68.2833 %
Sensor: Nr:Datum:Temp:Feuchte:
G-T/H 326 16-03-2018 00:00:00 9.4175 C 72.0250 %
327 17-03-2018 00:00:00 8.13333 C 61.2417 %
328 18-03-2018 00:00:00 6.64 C 57.5417 %
329 19-03-2018 00:00:00 6.395 C 58.4417 %
330 20-03-2018 00:00:00 6.19167 C 59.8333 %
331 21-03-2018 00:00:00 6.24 C 61.0167 %
332 22-03-2018 00:00:00 6.45333 C 62.8500 %
333 23-03-2018 00:00:00 7.555 C 68.1250 %
334 24-03-2018 00:00:00 7.95833 C 66.2333 %
335 25-03-2018 00:00:00 7.42522 C 63.5130 %
336 26-03-2018 00:00:00 8.47583 C 65.8417 %
337 27-03-2018 00:00:00 8.32583 C 65.0083 %
338 28-03-2018 00:00:00 9.05 C 70.1833 %
339 29-03-2018 00:00:00 9.1875 C 67.9333 %
340 30-03-2018 00:00:00 8.73083 C 65.5333 %
341 31-03-2018 00:00:00 9.3075 C 68.4417 %
342 01-04-2018 00:00:00 9.65917 C 69.4500 %
343 02-04-2018 00:00:00 9.52333 C 68.1000 %
344 03-04-2018 00:00:00 10.725 C 69.7000 %
345 04-04-2018 00:00:00 11.48583 C 70.6333 %
346 05-04-2018 00:00:00 10.94833 C 68.8000 %
347 06-04-2018 00:00:00 9.26167 C 62.4833 %
348 07-04-2018 00:00:00 10.58667 C 62.3917 %
349 08-04-2018 00:00:00 13.47 C 59.0417 %
350 09-04-2018 00:00:00 14.53917 C 57.1667 %
Sensor: Nr:Datum:Temp:Feuchte:
G-T/H 351 10-04-2018 00:00:00 13.77667 C 63.5000 %
352 11-04-2018 00:00:00 13.00917 C 66.6083 %
353 12-04-2018 00:00:00 12.9425 C 66.9917 %
354 13-04-2018 00:00:00 12.73333 C 67.2917 %
355 14-04-2018 00:00:00 13.63417 C 61.7667 %
356 15-04-2018 00:00:00 13.92167 C 65.0333 %
357 16-04-2018 00:00:00 14.52167 C 62.0000 %
358 17-04-2018 00:00:00 14.20333 C 61.1500 %
359 18-04-2018 00:00:00 14.54417 C 62.2333 %
360 19-04-2018 00:00:00 14.79583 C 62.5583 %
361 20-04-2018 00:00:00 15.73333 C 61.3833 %
362 21-04-2018 00:00:00 15.80333 C 63.5083 %
363 22-04-2018 00:00:00 15.78333 C 66.2917 %
364 23-04-2018 00:00:00 17.01667 C 62.7833 %
365 24-04-2018 00:00:00 16.23833 C 56.5917 %
366 25-04-2018 00:00:00 15.21833 C 62.0333 %
367 26-04-2018 00:00:00 13.76 C 51.5583 %
368 27-04-2018 00:00:00 13.61917 C 56.6250 %
369 28-04-2018 00:00:00 13.9325 C 61.2917 %
370 29-04-2018 00:00:00 14.02083 C 64.6000 %
371 30-04-2018 00:00:00 14.6725 C 64.2917 %
372 01-05-2018 00:00:00 13.36417 C 58.0083 %
373 02-05-2018 00:00:00 13.24833 C 56.1500 %
374 03-05-2018 00:00:00 13.77 C 57.8750 %
375 04-05-2018 00:00:00 13.83917 C 58.3750 %
Sensor: Nr:Datum:Temp:Feuchte:
G-T/H 376 05-05-2018 00:00:00 15.43167 C 55.9333 %
377 06-05-2018 00:00:00 15.6825 C 57.6750 %
378 07-05-2018 00:00:00 17.61 C 52.7917 %
379 08-05-2018 00:00:00 18.74917 C 49.1583 %
380 09-05-2018 00:00:00 17.61417 C 55.5167 %
381 10-05-2018 00:00:00 16.74583 C 61.1667 %
382 11-05-2018 00:00:00 15.555 C 63.3500 %
383 12-05-2018 00:00:00 15.79083 C 63.9333 %
384 13-05-2018 00:00:00 16.08833 C 66.4583 %
385 14-05-2018 00:00:00 15.57667 C 68.2083 %
386 15-05-2018 00:00:00 16.8825 C 59.6083 %
387 16-05-2018 00:00:00 16.71333 C 63.0083 %
388 17-05-2018 00:00:00 15.91 C 63.1083 %
389 18-05-2018 00:00:00 15.1975 C 60.7083 %
390 19-05-2018 00:00:00 15.0375 C 63.1750 %
391 20-05-2018 00:00:00 15.13333 C 64.4667 %
392 21-05-2018 00:00:00 16.85667 C 64.3167 %
393 22-05-2018 00:00:00 17.2475 C 65.6333 %
394 23-05-2018 00:00:00 16.85417 C 68.0583 %
395 24-05-2018 00:00:00 16.56417 C 69.4500 %
396 25-05-2018 00:00:00 17.3275 C 69.1583 %
397 26-05-2018 00:00:00 18.92583 C 67.1167 %
398 27-05-2018 00:00:00 18.99167 C 68.2750 %
399 28-05-2018 00:00:00 18.94167 C 69.8667 %
400 29-05-2018 00:00:00 19.4375 C 69.9667 %
Sensor: Nr:Datum:Temp:Feuchte:
G-T/H 401 30-05-2018 00:00:00 19.22417 C 70.2750 %
402 31-05-2018 00:00:00 19.74667 C 69.8500 %
403 01-06-2018 00:00:00 19.70417 C 70.5583 %
404 02-06-2018 00:00:00 19.1175 C 70.5000 %
405 03-06-2018 00:00:00 19.86917 C 66.6000 %
406 04-06-2018 00:00:00 21.16 C 62.4500 %
407 05-06-2018 00:00:00 21.1225 C 62.2500 %
408 06-06-2018 00:00:00 20.28167 C 64.7000 %
409 07-06-2018 00:00:00 20.33167 C 66.7250 %
410 08-06-2018 00:00:00 20.14167 C 68.3250 %
411 09-06-2018 00:00:00 21.14508 C 68.4918 %
412 10-06-2018 00:00:00 20.73583 C 69.4833 %
413 11-06-2018 00:00:00 20.2075 C 70.2833 %
414 12-06-2018 00:00:00 18.93333 C 70.9417 %
415 13-06-2018 00:00:00 17.78333 C 67.8500 %
416 14-06-2018 00:00:00 17.08167 C 65.6167 %
417 15-06-2018 00:00:00 17.87667 C 69.7333 %
418 16-06-2018 00:00:00 19.23167 C 66.0250 %
419 17-06-2018 00:00:00 19.20917 C 66.1250 %
420 18-06-2018 00:00:00 18.5725 C 66.5167 %
421 19-06-2018 00:00:00 19.3025 C 68.1667 %
422 20-06-2018 00:00:00 21.34417 C 62.6417 %
423 21-06-2018 00:00:00 20.40083 C 61.7667 %
424 22-06-2018 00:00:00 18.12583 C 59.1417 %
425 23-06-2018 00:00:00 16.91917 C 60.9000 %
Sensor: Nr:Datum:Temp:Feuchte:
G-T/H 426 24-06-2018 00:00:00 17.08583 C 64.6833 %
427 25-06-2018 00:00:00 17.72833 C 66.0250 %
428 26-06-2018 00:00:00 18.48917 C 62.1583 %
429 27-06-2018 00:00:00 19.815 C 57.9000 %
430 28-06-2018 00:00:00 20.73667 C 53.0667 %
431 29-06-2018 00:00:00 22.01 C 53.8250 %
432 30-06-2018 00:00:00 22.90917 C 48.2667 %
433 01-07-2018 00:00:00 21.50833 C 49.2500 %
434 02-07-2018 00:00:00 21.34083 C 43.1083 %
435 03-07-2018 00:00:00 20.70167 C 49.9250 %
436 04-07-2018 00:00:00 21.1075 C 60.3667 %
437 05-07-2018 00:00:00 21.2225 C 66.7750 %
438 06-07-2018 00:00:00 20.8225 C 63.6917 %
439 07-07-2018 00:00:00 20.45126 C 62.5294 %
440 08-07-2018 00:00:00 20.11833 C 59.9000 %
441 09-07-2018 00:00:00 20.74917 C 55.1417 %
442 10-07-2018 00:00:00 20.3825 C 58.3167 %
443 11-07-2018 00:00:00 18.89583 C 62.6083 %
444 12-07-2018 00:00:00 18.92167 C 65.2500 %
445 13-07-2018 00:00:00 20.39417 C 62.1167 %
446 14-07-2018 00:00:00 20.52583 C 63.2833 %
447 15-07-2018 00:00:00 20.67417 C 63.4333 %
448 16-07-2018 00:00:00 20.8475 C 63.2583 %
449 17-07-2018 00:00:00 20.97167 C 63.0667 %
450 18-07-2018 00:00:00 20.9325 C 59.6167 %
Sensor: Nr:Datum:Temp:Feuchte:
G-T/H 451 19-07-2018 00:00:00 21.11667 C 54.9500 %
452 20-07-2018 00:00:00 21.86917 C 52.9083 %
453 21-07-2018 00:00:00 21.57333 C 58.8500 %
454 22-07-2018 00:00:00 20.75417 C 62.4750 %
455 23-07-2018 00:00:00 22.1575 C 57.9833 %
456 24-07-2018 00:00:00 23.88 C 52.9250 %
457 25-07-2018 00:00:00 24.83333 C 49.4917 %
458 26-07-2018 00:00:00 25.99417 C 48.0750 %
459 27-07-2018 00:00:00 25.445 C 46.9000 %
460 28-07-2018 00:00:00 24.04917 C 55.1667 %
461 29-07-2018 00:00:00 22.61667 C 58.5167 %
462 30-07-2018 00:00:00 24.22583 C 54.8000 %
463 31-07-2018 00:00:00 25.41833 C 51.8250 %
464 01-08-2018 00:00:00 23.80667 C 61.0833 %
465 02-08-2018 00:00:00 23.36417 C 62.3583 %
466 03-08-2018 00:00:00 24.53167 C 58.5333 %
467 04-08-2018 00:00:00 25.9125 C 50.5583 %
468 05-08-2018 00:00:00 24.74417 C 53.5917 %
469 06-08-2018 00:00:00 24.53333 C 49.9583 %
470 07-08-2018 00:00:00 24.12667 C 54.2583 %
471 08-08-2018 00:00:00 24.27667 C 57.4917 %
472 09-08-2018 00:00:00 23.23333 C 60.5250 %
473 10-08-2018 00:00:00 21.49417 C 54.0000 %
474 11-08-2018 00:00:00 20.81667 C 56.0583 %
475 12-08-2018 00:00:00 20.13 C 56.1333 %
Sensor: Nr:Datum:Temp:Feuchte:
G-T/H 476 13-08-2018 00:00:00 20.07083 C 60.5667 %
477 14-08-2018 00:00:00 19.80333 C 63.5000 %
478 15-08-2018 00:00:00 19.82917 C 65.0667 %
479 16-08-2018 00:00:00 19.9875 C 64.3500 %
480 17-08-2018 00:00:00 20.46083 C 64.9583 %
481 18-08-2018 00:00:00 19.96167 C 62.2667 %
482 19-08-2018 00:00:00 19.83667 C 62.1667 %
483 20-08-2018 00:00:00 21.2525 C 62.2667 %
484 21-08-2018 00:00:00 21.17667 C 63.9333 %
485 22-08-2018 00:00:00 21.1725 C 64.1750 %
486 23-08-2018 00:00:00 21.47667 C 64.7000 %
487 24-08-2018 00:00:00 21.1275 C 62.0417 %
488 25-08-2018 00:00:00 19.5075 C 59.1667 %
489 26-08-2018 00:00:00 18.22417 C 55.7083 %
490 27-08-2018 00:00:00 18.48167 C 60.4500 %
491 28-08-2018 00:00:00 18.53833 C 61.2250 %
492 29-08-2018 00:00:00 18.56917 C 62.2417 %
493 30-08-2018 00:00:00 18.82333 C 63.4833 %
494 31-08-2018 00:00:00 18.3025 C 59.8750 %
495 01-09-2018 00:00:00 17.4825 C 59.8917 %
496 02-09-2018 00:00:00 16.9325 C 62.1583 %
497 03-09-2018 00:00:00 18.13333 C 66.0000 %
498 04-09-2018 00:00:00 19.61083 C 66.7083 %
499 05-09-2018 00:00:00 19.59583 C 67.1750 %
500 06-09-2018 00:00:00 19.38917 C 68.3667 %
Sensor: Nr:Datum:Temp:Feuchte:
G-T/H 501 07-09-2018 00:00:00 18.6775 C 67.7917 %
502 08-09-2018 00:00:00 17.10833 C 59.8333 %
503 09-09-2018 00:00:00 17.1975 C 64.7667 %
504 10-09-2018 00:00:00 18.47583 C 60.5250 %
505 11-09-2018 00:00:00 19.45417 C 58.4917 %
506 12-09-2018 00:00:00 18.84083 C 60.8833 %
507 13-09-2018 00:00:00 18.58083 C 66.2167 %
508 14-09-2018 00:00:00 18.04833 C 65.0000 %
509 15-09-2018 00:00:00 17.66667 C 59.8833 %
510 16-09-2018 00:00:00 16.83 C 61.8000 %
511 17-09-2018 00:00:00 17.8475 C 57.0583 %
512 18-09-2018 00:00:00 19.79417 C 56.2333 %
513 19-09-2018 00:00:00 21.03083 C 58.0583 %
514 20-09-2018 00:00:00 20.82 C 55.5500 %
515 21-09-2018 00:00:00 19.29417 C 59.4833 %
516 22-09-2018 00:00:00 17.24917 C 60.5250 %
517 23-09-2018 00:00:00 16.50167 C 65.7500 %
518 24-09-2018 00:00:00 15.14583 C 63.3167 %
519 25-09-2018 00:00:00 13.7275 C 62.7333 %
520 26-09-2018 00:00:00 13.02583 C 63.2917 %
521 27-09-2018 00:00:00 13.0625 C 65.7333 %
522 28-09-2018 00:00:00 13.53583 C 69.5083 %
523 29-09-2018 00:00:00 12.62 C 64.5750 %
524 30-09-2018 00:00:00 11.83417 C 63.4000 %
525 01-10-2018 00:00:00 12.43167 C 68.0167 %
Sensor: Nr:Datum:Temp:Feuchte:
G-T/H 526 02-10-2018 00:00:00 12.47917 C 67.0333 %
527 03-10-2018 00:00:00 13.125 C 70.8750 %
528 04-10-2018 00:00:00 12.85083 C 66.8417 %
529 05-10-2018 00:00:00 13.175 C 68.1250 %
530 06-10-2018 00:00:00 12.79833 C 73.9167 %
531 07-10-2018 00:00:00 14.22167 C 74.0833 %
532 08-10-2018 00:00:00 13.52083 C 69.3917 %
533 09-10-2018 00:00:00 13.39083 C 72.8583 %
534 10-10-2018 00:00:00 13.75333 C 75.3000 %
535 11-10-2018 00:00:00 13.985 C 75.0167 %
536 12-10-2018 00:00:00 14.54333 C 75.8417 %
537 13-10-2018 00:00:00 15.69 C 72.6083 %
538 14-10-2018 00:00:00 15.11667 C 72.1917 %
539 15-10-2018 00:00:00 14.6725 C 73.1583 %
540 16-10-2018 00:00:00 14.08333 C 72.8917 %
541 17-10-2018 00:00:00 13.86667 C 73.4083 %
542 18-10-2018 00:00:00 14.26083 C 74.7500 %
543 19-10-2018 00:00:00 14.28333 C 73.2417 %
544 20-10-2018 00:00:00 14.01833 C 72.8250 %
545 21-10-2018 00:00:00 12.52583 C 67.5917 %
546 22-10-2018 00:00:00 11.7575 C 67.8750 %
547 23-10-2018 00:00:00 11.71417 C 69.2333 %
548 24-10-2018 00:00:00 13.1175 C 73.3417 %
549 25-10-2018 00:00:00 13.88083 C 73.4083 %
550 26-10-2018 00:00:00 13.5375 C 68.0250 %
Sensor: Nr:Datum:Temp:Feuchte:
G-T/H 551 27-10-2018 00:00:00 12.19667 C 65.8417 %
552 28-10-2018 00:00:00 10.9176 C 62.4880 %
553 29-10-2018 00:00:00 10.95583 C 65.6250 %
554 30-10-2018 00:00:00 10.86333 C 67.5167 %
555 31-10-2018 00:00:00 10.8775 C 68.4750 %
556 01-11-2018 00:00:00 10.72083 C 69.2750 %
557 02-11-2018 00:00:00 11.285 C 72.4667 %
558 03-11-2018 00:00:00 10.44 C 67.0750 %
559 04-11-2018 00:00:00 10.265 C 68.6167 %
560 05-11-2018 00:00:00 11.60167 C 72.5750 %
561 06-11-2018 00:00:00 11.5475 C 72.0167 %
562 07-11-2018 00:00:00 11.24083 C 72.4083 %
563 08-11-2018 00:00:00 11.87833 C 74.0333 %
564 09-11-2018 00:00:00 11.62333 C 73.2750 %
565 10-11-2018 00:00:00 12.22833 C 74.7000 %
566 11-11-2018 00:00:00 12.73917 C 75.7833 %
567 12-11-2018 00:00:00 13.255 C 75.6083 %
568 13-11-2018 00:00:00 13.2975 C 75.3417 %
569 14-11-2018 00:00:00 11.54667 C 70.8583 %
570 15-11-2018 00:00:00 11.19417 C 71.8333 %
571 16-11-2018 00:00:00 10.76833 C 68.8833 %
572 17-11-2018 00:00:00 9.25167 C 68.0000 %
573 18-11-2018 00:00:00 8.3775 C 68.4167 %
574 19-11-2018 00:00:00 8.15 C 69.1333 %
575 20-11-2018 00:00:00 8.56667 C 68.8833 %
Sensor: Nr:Datum:Temp:Feuchte:
G-T/H 576 21-11-2018 00:00:00 8.45333 C 69.6833 %
577 22-11-2018 00:00:00 8.65333 C 70.9083 %
578 23-11-2018 00:00:00 7.69667 C 69.4917 %
579 24-11-2018 00:00:00 8.0325 C 72.4750 %
580 25-11-2018 00:00:00 9.05667 C 73.9333 %
581 26-11-2018 00:00:00 9.6625 C 74.3250 %
582 27-11-2018 00:00:00 9.61333 C 72.8000 %
583 28-11-2018 00:00:00 8.91917 C 71.9583 %
584 29-11-2018 00:00:00 9.26083 C 73.8000 %
585 30-11-2018 00:00:00 9.63 C 74.7833 %
586 01-12-2018 00:00:00 9.92417 C 74.6250 %
587 02-12-2018 00:00:00 10.7275 C 75.6167 %
588 03-12-2018 00:00:00 11.87333 C 76.5417 %
589 04-12-2018 00:00:00 11.3275 C 72.0250 %
590 05-12-2018 00:00:00 9.61933 C 69.0504 %
591 06-12-2018 00:00:00 10.40583 C 72.9583 %
592 07-12-2018 00:00:00 11.82917 C 74.0583 %
593 08-12-2018 00:00:00 11.04667 C 70.6667 %
594 09-12-2018 00:00:00 10.81167 C 72.8000 %
595 10-12-2018 00:00:00 10.01083 C 71.3083 %
596 11-12-2018 00:00:00 9.19083 C 71.8583 %
597 12-12-2018 00:00:00 8.70667 C 72.1583 %
598 13-12-2018 00:00:00 8.07083 C 70.1167 %
599 14-12-2018 00:00:00 7.78 C 68.6583 %
600 15-12-2018 00:00:00 7.575 C 68.1083 %
Sensor: Nr:Datum:Temp:Feuchte:
G-T/H 601 16-12-2018 00:00:00 7.33667 C 67.4333 %
602 17-12-2018 00:00:00 7.74583 C 71.2333 %
603 18-12-2018 00:00:00 8.3475 C 72.4667 %
604 19-12-2018 00:00:00 8.60083 C 72.9417 %
605 20-12-2018 00:00:00 9.3175 C 74.0000 %
606 21-12-2018 00:00:00 10.0375 C 74.8333 %
607 22-12-2018 00:00:00 10.99417 C 74.3000 %
608 23-12-2018 00:00:00 10.525 C 74.6917 %
609 24-12-2018 00:00:00 10.26583 C 72.2917 %
610 25-12-2018 00:00:00 8.6825 C 71.1167 %
611 26-12-2018 00:00:00 7.58083 C 70.1333 %
612 27-12-2018 00:00:00 6.98167 C 70.2333 %
613 28-12-2018 00:00:00 6.8575 C 71.5833 %
614 29-12-2018 00:00:00 7.085 C 72.4583 %
615 30-12-2018 00:00:00 8.24 C 74.4417 %
616 31-12-2018 00:00:00 9.18833 C 75.6083 %
617 01-01-2019 00:00:00 9.65583 C 75.8167 %
618 02-01-2019 00:00:00 8.91333 C 73.4000 %
619 03-01-2019 00:00:00 7.65417 C 72.7000 %
620 04-01-2019 00:00:00 7.72667 C 73.7750 %
621 05-01-2019 00:00:00 8.26833 C 74.6083 %
622 06-01-2019 00:00:00 8.8 C 75.9250 %
623 07-01-2019 00:00:00 8.94 C 75.0167 %
624 08-01-2019 00:00:00 9.01833 C 74.5417 %
625 09-01-2019 00:00:00 8.46417 C 73.0417 %
Sensor: Nr:Datum:Temp:Feuchte:
G-T/H 626 10-01-2019 00:00:00 7.90083 C 71.3750 %
627 11-01-2019 00:00:00 7.57167 C 72.1167 %
628 12-01-2019 00:00:00 8.24417 C 74.2500 %
629 13-01-2019 00:00:00 8.91667 C 75.6333 %
630 14-01-2019 00:00:00 9.11083 C 74.7417 %
631 15-01-2019 00:00:00 8.33333 C 74.3833 %
632 16-01-2019 00:00:00 8.5125 C 74.7083 %
633 17-01-2019 00:00:00 8.4975 C 74.5500 %
634 18-01-2019 00:00:00 7.79333 C 72.6583 %
635 19-01-2019 00:00:00 6.99833 C 69.2000 %
636 20-01-2019 00:00:00 6.61083 C 64.8583 %
637 21-01-2019 00:00:00 6.18667 C 61.1750 %
638 22-01-2019 00:00:00 6.04833 C 60.2083 %
639 23-01-2019 00:00:00 6.2575 C 63.4917 %
640 24-01-2019 00:00:00 6.30833 C 65.6583 %
641 25-01-2019 00:00:00 6.2425 C 67.2833 %
642 26-01-2019 00:00:00 6.51833 C 71.7083 %
643 27-01-2019 00:00:00 7.75333 C 73.9667 %
644 28-01-2019 00:00:00 7.77417 C 74.2417 %
645 29-01-2019 00:00:00 7.46167 C 73.9917 %
646 30-01-2019 00:00:00 6.65667 C 69.5667 %
647 31-01-2019 00:00:00 6.54333 C 72.1667 %
648 01-02-2019 00:00:00 6.475 C 73.4167 %
649 02-02-2019 00:00:00 6.70083 C 74.6612 %
650 03-02-2019 00:00:00 6.98667 C 74.3417 %
Sensor: Nr:Datum:Temp:Feuchte:
G-T/H 651 04-02-2019 00:00:00 6.68333 C 73.8083 %
652 05-02-2019 00:00:00 7.12 C 74.5083 %
653 06-02-2019 00:00:00 6.9875 C 73.4333 %
654 07-02-2019 00:00:00 7.0025 C 74.8750 %
655 08-02-2019 00:00:00 7.93833 C 76.1083 %
656 09-02-2019 00:00:00 8.85917 C 76.1583 %
657 10-02-2019 00:00:00 9.2225 C 75.9667 %
658 11-02-2019 00:00:00 8.8125 C 75.1083 %
659 12-02-2019 00:00:00 8.09167 C 74.2167 %
660 13-02-2019 00:00:00 7.47583 C 73.5000 %
661 14-02-2019 00:00:00 6.95583 C 72.5083 %
662 15-02-2019 00:00:00 6.6825 C 71.6250 %
663 16-02-2019 00:00:00 6.53917 C 73.3083 %
664 17-02-2019 00:00:00 6.63667 C 74.1417 %
665 18-02-2019 00:00:00 6.65583 C 74.3000 %
666 19-02-2019 00:00:00 7.19417 C 75.8083 %
667 20-02-2019 00:00:00 7.495 C 75.5500 %
668 21-02-2019 00:00:00 7.76167 C 75.7333 %
669 22-02-2019 00:00:00 9.21417 C 77.2250 %
670 23-02-2019 00:00:00 9.20583 C 74.8917 %
671 24-02-2019 00:00:00 8.01917 C 72.1333 %
672 25-02-2019 00:00:00 7.5975 C 71.6250 %
673 26-02-2019 00:00:00 7.74083 C 71.5500 %
674 27-02-2019 00:00:00 6.63667 C 68.6917 %
675 28-02-2019 00:00:00 8.11917 C 73.1500 %
Sensor: Nr:Datum:Temp:Feuchte:
G-T/H 676 01-03-2019 00:00:00 9.37083 C 74.7583 %
677 02-03-2019 00:00:00 9.69333 C 72.8750 %
678 03-03-2019 00:00:00 10.36917 C 73.5083 %
679 04-03-2019 00:00:00 10.60917 C 73.1083 %
680 05-03-2019 00:00:00 9.71 C 71.6083 %
681 06-03-2019 00:00:00 9.71 C 73.4333 %
682 07-03-2019 00:00:00 10.48417 C 73.6500 %
683 08-03-2019 00:00:00 10.0575 C 72.7250 %
684 09-03-2019 00:00:00 10.17167 C 73.4333 %
685 10-03-2019 00:00:00 10.60917 C 71.4667 %
686 11-03-2019 00:00:00 9.44833 C 67.3667 %
687 12-03-2019 00:00:00 8.92417 C 70.4667 %
688 13-03-2019 00:00:00 9.345 C 71.3250 %
689 14-03-2019 00:00:00 9.13333 C 72.3750 %
690 15-03-2019 00:00:00 10.055 C 74.0583 %
691 16-03-2019 00:00:00 10.57417 C 72.1333 %
692 17-03-2019 00:00:00 9.70583 C 61.2083 %
693 18-03-2019 00:00:00 6.8675 C 62.4667 %
694 19-03-2019 00:00:00 6.02333 C 59.7583 %
695 20-03-2019 00:00:00 7.52333 C 64.5167 %
696 21-03-2019 00:00:00 9.29167 C 60.4917 %
697 22-03-2019 00:00:00 10.14833 C 61.3250 %
698 23-03-2019 00:00:00 10.15917 C 64.7250 %
699 24-03-2019 00:00:00 9.54833 C 67.2167 %
700 25-03-2019 00:00:00 9.15583 C 67.9000 %
Sensor: Nr:Datum:Temp:Feuchte:
G-T/H 701 26-03-2019 00:00:00 9.0525 C 69.7250 %
702 27-03-2019 00:00:00 9.47917 C 69.9333 %
703 28-03-2019 00:00:00 9.49583 C 69.9417 %
704 29-03-2019 00:00:00 10.2825 C 66.2583 %
705 30-03-2019 00:00:00 9.79667 C 60.6083 %
706 31-03-2019 00:00:00 11.2313 C 64.9130 %
707 01-04-2019 00:00:00 11.50333 C 60.3833 %
708 02-04-2019 00:00:00 11.2875 C 63.6333 %
709 03-04-2019 00:00:00 11.49833 C 67.0000 %
710 04-04-2019 00:00:00 10.56333 C 67.8833 %
711 05-04-2019 00:00:00 9.87333 C 68.5417 %
712 06-04-2019 00:00:00 10.76333 C 69.0417 %
713 07-04-2019 00:00:00 11.4925 C 68.0667 %
714 08-04-2019 00:00:00 12.30917 C 70.6833 %
715 09-04-2019 00:00:00 12.2875 C 74.7333 %
716 10-04-2019 00:00:00 12.35917 C 56.9917 %
717 11-04-2019 00:00:00 10.73083 C 48.4917 %
718 12-04-2019 00:00:00 9.57417 C 46.6333 %
719 13-04-2019 00:00:00 9.48583 C 55.2583 %
720 14-04-2019 00:00:00 9.175 C 58.5167 %
721 15-04-2019 00:00:00 10.07667 C 62.0833 %
722 16-04-2019 00:00:00 11.07083 C 62.2083 %
723 17-04-2019 00:00:00 12.33417 C 65.8333 %
724 18-04-2019 00:00:00 13.09417 C 62.0833 %
725 19-04-2019 00:00:00 14.9125 C 51.5500 %
Sensor: Nr:Datum:Temp:Feuchte:
G-T/H 726 20-04-2019 00:00:00 15.6775 C 48.0417 %
727 21-04-2019 00:00:00 16.29 C 47.3167 %
728 22-04-2019 00:00:00 15.22333 C 52.2417 %
729 23-04-2019 00:00:00 15.61417 C 53.2333 %
730 24-04-2019 00:00:00 15.37833 C 59.4167 %
731 25-04-2019 00:00:00 14.5575 C 61.5833 %
732 26-04-2019 00:00:00 14.28667 C 64.1250 %
733 27-04-2019 00:00:00 13.445 C 64.1833 %
734 28-04-2019 00:00:00 12.45 C 64.1833 %
735 29-04-2019 00:00:00 11.95083 C 63.4083 %
736 30-04-2019 00:00:00 13.89833 C 57.8083 %
737 01-05-2019 00:00:00 14.135 C 60.2833 %
738 02-05-2019 00:00:00 13.82333 C 62.1750 %
739 03-05-2019 00:00:00 13.86417 C 59.4750 %
740 04-05-2019 00:00:00 12.72083 C 59.0083 %
741 05-05-2019 00:00:00 11.31667 C 59.7917 %
742 06-05-2019 00:00:00 11.38833 C 61.2833 %
743 07-05-2019 00:00:00 11.88083 C 62.6250 %
744 08-05-2019 00:00:00 11.97 C 62.9333 %
745 09-05-2019 00:00:00 12.35167 C 66.7333 %
746 10-05-2019 00:00:00 12.92101 C 67.6218 %
747 11-05-2019 00:00:00 13.15833 C 68.0833 %
748 12-05-2019 00:00:00 12.12833 C 64.0833 %
749 13-05-2019 00:00:00 12.045 C 60.0000 %
750 14-05-2019 00:00:00 12.31083 C 59.7417 %
Sensor: Nr:Datum:Temp:Feuchte:
G-T/H 751 15-05-2019 00:00:00 12.7725 C 52.9833 %
752 16-05-2019 00:00:00 13.015 C 56.6333 %
753 17-05-2019 00:00:00 13.21917 C 63.1000 %
754 18-05-2019 00:00:00 14.04667 C 66.4250 %
755 19-05-2019 00:00:00 14.825 C 68.0750 %
756 20-05-2019 00:00:00 14.84583 C 68.8000 %
757 21-05-2019 00:00:00 14.15167 C 70.0167 %
758 22-05-2019 00:00:00 13.71167 C 69.7583 %
759 23-05-2019 00:00:00 15.29917 C 61.3750 %
760 24-05-2019 00:00:00 17.54 C 55.6333 %
761 25-05-2019 00:00:00 17.29083 C 56.6250 %
762 26-05-2019 00:00:00 16.44583 C 60.8167 %
763 27-05-2019 00:00:00 16.3925 C 64.3917 %
764 28-05-2019 00:00:00 15.71583 C 66.5333 %
765 29-05-2019 00:00:00 16.0475 C 54.4250 %
766 30-05-2019 00:00:00 15.75417 C 61.4167 %
767 31-05-2019 00:00:00 17.74167 C 65.2667 %
768 01-06-2019 00:00:00 18.025 C 65.0750 %
769 02-06-2019 00:00:00 18.60667 C 66.0917 %
770 03-06-2019 00:00:00 19.92333 C 65.8667 %
771 04-06-2019 00:00:00 19.69667 C 66.1500 %
772 05-06-2019 00:00:00 20.025 C 66.6917 %
773 06-06-2019 00:00:00 19.2775 C 64.1917 %
774 07-06-2019 00:00:00 17.86583 C 60.1250 %
775 08-06-2019 00:00:00 17.565 C 60.2333 %
Sensor: Nr:Datum:Temp:Feuchte:
G-T/H 776 09-06-2019 00:00:00 16.99667 C 61.5667 %
777 10-06-2019 00:00:00 17.96333 C 64.8583 %
778 11-06-2019 00:00:00 18.18333 C 66.3917 %
779 12-06-2019 00:00:00 17.70333 C 67.3917 %
780 13-06-2019 00:00:00 17.89167 C 58.1667 %
781 14-06-2019 00:00:00 19.59083 C 60.6083 %
782 15-06-2019 00:00:00 19.6625 C 64.9917 %
783 16-06-2019 00:00:00 19.56917 C 62.4417 %
784 17-06-2019 00:00:00 19.01167 C 62.8417 %
785 18-06-2019 00:00:00 21.23667 C 58.9250 %
786 19-06-2019 00:00:00 21.53167 C 61.1000 %
787 20-06-2019 00:00:00 20.7375 C 63.5667 %
788 21-06-2019 00:00:00 20.53083 C 52.5000 %
789 22-06-2019 00:00:00 20.16917 C 54.8083 %
790 23-06-2019 00:00:00 21.31917 C 57.1667 %
791 24-06-2019 00:00:00 23.94167 C 55.3000 %
792 25-06-2019 00:00:00 23.93083 C 58.5083 %
793 26-06-2019 00:00:00 24.37417 C 62.9417 %
794 27-06-2019 00:00:00 23.60667 C 60.8333 %
795 28-06-2019 00:00:00 22.21417 C 58.6667 %
796 29-06-2019 00:00:00 24.105 C 45.4667 %
797 30-06-2019 00:00:00 23.46833 C 52.6667 %
798 01-07-2019 00:00:00 23.14417 C 56.9333 %
799 02-07-2019 00:00:00 21.5975 C 49.7667 %
800 03-07-2019 00:00:00 20.46667 C 46.5000 %
Sensor: Nr:Datum:Temp:Feuchte:
G-T/H 801 04-07-2019 00:00:00 20.24 C 44.2750 %
802 05-07-2019 00:00:00 20.99583 C 47.4667 %
803 06-07-2019 00:00:00 21.055 C 53.0250 %
804 07-07-2019 00:00:00 20.39667 C 54.9083 %
805 08-07-2019 00:00:00 18.37167 C 51.1250 %
806 09-07-2019 00:00:00 18.10583 C 49.1417 %
807 10-07-2019 00:00:00 18.91917 C 42.0333 %
808 11-07-2019 00:00:00 18.91167 C 59.7083 %
809 12-07-2019 00:00:00 18.3025 C 73.7917 %
810 13-07-2019 00:00:00 18.47333 C 67.7417 %
811 14-07-2019 00:00:00 18.46917 C 65.0917 %
812 15-07-2019 00:00:00 18.2725 C 59.6250 %
813 16-07-2019 00:00:00 17.95917 C 58.3667 %
814 17-07-2019 00:00:00 18.23667 C 61.2917 %
815 18-07-2019 00:00:00 19.79417 C 58.3083 %
816 19-07-2019 00:00:00 19.79417 C 61.5917 %
817 20-07-2019 00:00:00 19.78583 C 63.8500 %
818 21-07-2019 00:00:00 20.41333 C 63.8583 %
819 22-07-2019 00:00:00 22.33167 C 54.5167 %
820 23-07-2019 00:00:00 22.5225 C 56.8667 %
821 24-07-2019 00:00:00 23.21833 C 58.3417 %
822 25-07-2019 00:00:00 24.345 C 57.0083 %
823 26-07-2019 00:00:00 24.17667 C 57.8500 %
824 27-07-2019 00:00:00 23.54 C 61.3083 %
825 28-07-2019 00:00:00 22.08333 C 64.8167 %
Sensor: Nr:Datum:Temp:Feuchte:
G-T/H 826 29-07-2019 00:00:00 21.58833 C 59.7917 %
827 30-07-2019 00:00:00 21.785 C 58.7750 %
828 31-07-2019 00:00:00 22.4025 C 50.4333 %
829 01-08-2019 00:00:00 21.77083 C 49.7000 %
830 02-08-2019 00:00:00 21.34583 C 55.7750 %
831 03-08-2019 00:00:00 20.90667 C 59.1167 %
832 04-08-2019 00:00:00 20.4525 C 59.4750 %
833 05-08-2019 00:00:00 22.07 C 57.0167 %
834 06-08-2019 00:00:00 21.48083 C 59.7417 %
835 07-08-2019 00:00:00 21.08 C 63.1500 %
836 08-08-2019 00:00:00 20.60333 C 62.6167 %
837 09-08-2019 00:00:00 20.50167 C 64.6000 %
838 10-08-2019 00:00:00 20.38917 C 65.0917 %
839 11-08-2019 00:00:00 19.8725 C 64.3750 %
840 12-08-2019 00:00:00 19.0475 C 65.6000 %
841 13-08-2019 00:00:00 18.645 C 58.8417 %
842 14-08-2019 00:00:00 18.54583 C 57.0833 %
843 15-08-2019 00:00:00 18.91583 C 62.6250 %
844 16-08-2019 00:00:00 18.59917 C 65.5583 %
845 17-08-2019 00:00:00 18.78167 C 67.1583 %
846 18-08-2019 00:00:00 19.07417 C 68.7167 %
847 19-08-2019 00:00:00 19.70167 C 61.8833 %
848 20-08-2019 00:00:00 18.7775 C 58.6500 %
849 21-08-2019 00:00:00 18.37 C 62.6500 %
850 22-08-2019 00:00:00 18.7725 C 58.7167 %
Sensor: Nr:Datum:Temp:Feuchte:
G-T/H 851 23-08-2019 00:00:00 19.34333 C 56.0250 %
852 24-08-2019 00:00:00 19.1825 C 58.5917 %
853 25-08-2019 00:00:00 19.53 C 63.3500 %
854 26-08-2019 00:00:00 21.84417 C 64.5833 %
855 27-08-2019 00:00:00 21.31417 C 66.1667 %
856 28-08-2019 00:00:00 21.07 C 66.6583 %
857 29-08-2019 00:00:00 21.03417 C 66.8417 %
858 30-08-2019 00:00:00 20.6775 C 66.8917 %
859 31-08-2019 00:00:00 20.2775 C 66.5917 %
860 01-09-2019 00:00:00 20.59167 C 65.4167 %
861 02-09-2019 00:00:00 18.59583 C 51.3417 %
862 03-09-2019 00:00:00 16.5475 C 53.5583 %
863 04-09-2019 00:00:00 18.68667 C 56.9667 %
864 05-09-2019 00:00:00 18.34667 C 60.0000 %
865 06-09-2019 00:00:00 17.44333 C 56.1750 %
866 07-09-2019 00:00:00 17.36583 C 60.4417 %
867 08-09-2019 00:00:00 16.54309 C 65.9350 %
868 09-09-2019 00:00:00 16.06067 C 66.7333 %
869 10-09-2019 00:00:00 15.23333 C 63.6597 %
870 11-09-2019 00:00:00 15.74097 C 61.0833 %
871 12-09-2019 00:00:00 17.93194 C 67.6319 %
872 13-09-2019 00:00:00 18.68472 C 70.9653 %
873 14-09-2019 00:00:00 18.01181 C 65.5903 %
874 15-09-2019 00:00:00 17.60347 C 61.9722 %
875 16-09-2019 00:00:00 17.78264 C 60.7361 %
Sensor: Nr:Datum:Temp:Feuchte:
G-T/H 876 17-09-2019 00:00:00 17.67431 C 62.7083 %
877 18-09-2019 00:00:00 15.39444 C 57.2778 %
878 19-09-2019 00:00:00 14.12361 C 57.3125 %
879 20-09-2019 00:00:00 13.22639 C 59.3056 %
880 21-09-2019 00:00:00 15.10833 C 52.5278 %
881 22-09-2019 00:00:00 15.13194 C 59.2083 %
882 23-09-2019 00:00:00 16.27153 C 64.4028 %
883 24-09-2019 00:00:00 16.11528 C 66.2778 %
884 25-09-2019 00:00:00 16.20556 C 67.8681 %
885 26-09-2019 00:00:00 16.33542 C 69.4097 %
886 27-09-2019 00:00:00 16.76458 C 69.3611 %
887 28-09-2019 00:00:00 16.47083 C 68.9792 %
888 29-09-2019 00:00:00 16.41458 C 69.6528 %
889 30-09-2019 00:00:00 16.64236 C 66.7917 %
890 01-10-2019 00:00:00 16.54167 C 68.3542 %
891 02-10-2019 00:00:00 16.15694 C 67.3056 %
892 03-10-2019 00:00:00 14.67222 C 66.7361 %
893 04-10-2019 00:00:00 14.15556 C 70.1319 %
894 05-10-2019 00:00:00 14.31875 C 71.1667 %
895 06-10-2019 00:00:00 13.69306 C 70.7847 %
896 07-10-2019 00:00:00 13.58056 C 72.7153 %
897 08-10-2019 00:00:00 14.14097 C 74.1597 %
898 09-10-2019 00:00:00 14.23472 C 74.0486 %
899 10-10-2019 00:00:00 14.00139 C 74.0278 %
900 11-10-2019 00:00:00 13.98819 C 74.3333 %
Sensor: Nr:Datum:Temp:Feuchte:
G-T/H 901 12-10-2019 00:00:00 14.71181 C 71.7639 %
902 13-10-2019 00:00:00 15.13472 C 74.9097 %
903 14-10-2019 00:00:00 16.34722 C 74.3958 %
904 15-10-2019 00:00:00 15.98125 C 73.6597 %
905 16-10-2019 00:00:00 15.42708 C 73.2986 %
906 17-10-2019 00:00:00 15.28056 C 74.7292 %
907 18-10-2019 00:00:00 15.18681 C 74.6042 %
908 19-10-2019 00:00:00 14.72222 C 74.1944 %
909 20-10-2019 00:00:00 14.40278 C 81.1597 %
910 21-10-2019 00:00:00 14.60625 C 80.9028 %
911 22-10-2019 00:00:00 14.62153 C 77.5000 %
912 23-10-2019 00:00:00 14.00764 C 76.3542 %
913 24-10-2019 00:00:00 14.52986 C 78.0139 %
914 25-10-2019 00:00:00 15.10694 C 74.8681 %
915 26-10-2019 00:00:00 14.99028 C 74.2153 %
916 27-10-2019 00:00:00 14.43933 C 74.9333 %
917 28-10-2019 00:00:00 12.81389 C 71.1806 %
918 29-10-2019 00:00:00 12.35556 C 71.6389 %
919 30-10-2019 00:00:00 10.98611 C 65.8194 %
920 31-10-2019 00:00:00 9.49097 C 64.1736 %
921 01-11-2019 00:00:00 9.67014 C 69.2569 %
922 02-11-2019 00:00:00 12.01181 C 74.2222 %
923 03-11-2019 00:00:00 12.91806 C 75.4861 %
924 04-11-2019 00:00:00 12.97569 C 75.6250 %
925 05-11-2019 00:00:00 12.58194 C 75.9444 %
Sensor: Nr:Datum:Temp:Feuchte:
G-T/H 926 06-11-2019 00:00:00 12.33194 C 75.6528 %
927 07-11-2019 00:00:00 12.18403 C 75.3403 %
928 08-11-2019 00:00:00 11.13611 C 70.1181 %
929 09-11-2019 00:00:00 11.02014 C 69.0972 %
930 10-11-2019 00:00:00 9.95556 C 68.3056 %
931 11-11-2019 00:00:00 9.96458 C 71.2708 %
932 12-11-2019 00:00:00 10.11458 C 72.0972 %
933 13-11-2019 00:00:00 10.0125 C 72.4097 %
934 14-11-2019 00:00:00 9.73403 C 68.3958 %
935 15-11-2019 00:00:00 9.68819 C 69.4028 %
936 16-11-2019 00:00:00 9.6125 C 68.7083 %
937 17-11-2019 00:00:00 9.03819 C 69.9306 %
938 18-11-2019 00:00:00 9.47361 C 72.2500 %
939 19-11-2019 00:00:00 9.40903 C 72.0833 %
940 20-11-2019 00:00:00 8.93333 C 71.1181 %
941 21-11-2019 00:00:00 8.40559 C 70.8182 %
942 22-11-2019 00:00:00 8.70556 C 72.6736 %
943 23-11-2019 00:00:00 9.32569 C 73.0972 %
944 24-11-2019 00:00:00 9.08333 C 72.0764 %
945 25-11-2019 00:00:00 9.04375 C 73.5069 %
946 26-11-2019 00:00:00 9.85139 C 74.9375 %
947 27-11-2019 00:00:00 10.87847 C 75.9236 %
948 28-11-2019 00:00:00 11.51597 C 75.5069 %
949 29-11-2019 00:00:00 11.25208 C 72.3542 %
950 30-11-2019 00:00:00 9.66736 C 68.9097 %
Sensor: Nr:Datum:Temp:Feuchte:
G-T/H 951 01-12-2019 00:00:00 8.81806 C 70.1806 %
952 02-12-2019 00:00:00 8.35278 C 70.5417 %
953 03-12-2019 00:00:00 8.74514 C 73.3472 %
954 04-12-2019 00:00:00 8.79375 C 71.8403 %
955 05-12-2019 00:00:00 7.92014 C 69.1458 %
956 06-12-2019 00:00:00 7.57292 C 70.7014 %
957 07-12-2019 00:00:00 8.97014 C 74.4514 %
958 08-12-2019 00:00:00 10.25694 C 75.1667 %
959 09-12-2019 00:00:00 10.48403 C 74.1111 %
960 10-12-2019 00:00:00 9.34028 C 71.5903 %
961 11-12-2019 00:00:00 8.75694 C 73.1250 %
962 12-12-2019 00:00:00 8.81042 C 73.2500 %
963 13-12-2019 00:00:00 8.51944 C 72.1458 %
964 14-12-2019 00:00:00 8.92153 C 73.0764 %
965 15-12-2019 00:00:00 9.56736 C 74.6667 %
966 16-12-2019 00:00:00 9.90486 C 75.1389 %
967 17-12-2019 00:00:00 10.43333 C 75.4583 %
968 18-12-2019 00:00:00 10.925 C 75.4861 %
969 19-12-2019 00:00:00 9.76667 C 73.6667 %
970 20-12-2019 00:00:00 9.69375 C 75.0208 %
971 21-12-2019 00:00:00 10.06458 C 74.5833 %
972 22-12-2019 00:00:00 10.1375 C 75.1528 %
973 23-12-2019 00:00:00 10.30417 C 75.3681 %
974 24-12-2019 00:00:00 10.12639 C 74.9375 %
975 25-12-2019 00:00:00 10.24444 C 75.9653 %
Sensor: Nr:Datum:Temp:Feuchte:
G-T/H 976 26-12-2019 00:00:00 9.92708 C 75.2569 %
977 27-12-2019 00:00:00 9.69444 C 75.5833 %
978 28-12-2019 00:00:00 8.37639 C 70.3194 %
979 29-12-2019 00:00:00 7.21528 C 69.6875 %
980 30-12-2019 00:00:00 7.16944 C 69.0486 %
981 31-12-2019 00:00:00 6.93194 C 69.9722 %
982 01-01-2020 00:00:00 7.23125 C 70.8403 %
983 02-01-2020 00:00:00 7.28958 C 70.5417 %
984 03-01-2020 00:00:00 8.41389 C 73.4792 %
985 04-01-2020 00:00:00 9.12431 C 73.5833 %
986 05-01-2020 00:00:00 9.42917 C 73.5694 %
987 06-01-2020 00:00:00 9.33958 C 72.1181 %
988 07-01-2020 00:00:00 8.74583 C 72.1111 %
989 08-01-2020 00:00:00 9.18611 C 74.0347 %
990 09-01-2020 00:00:00 10.3875 C 76.5556 %
991 10-01-2020 00:00:00 11.02153 C 75.1389 %
992 11-01-2020 00:00:00 10.04097 C 73.2014 %
993 12-01-2020 00:00:00 9.14861 C 72.8958 %
994 13-01-2020 00:00:00 9.30833 C 74.5139 %
995 14-01-2020 00:00:00 9.78958 C 75.6597 %
996 15-01-2020 00:00:00 10.59028 C 75.5972 %
997 16-01-2020 00:00:00 10.82222 C 75.8264 %
998 17-01-2020 00:00:00 9.87847 C 74.9583 %
999 18-01-2020 00:00:00 9.38125 C 74.1597 %
1000 19-01-2020 00:00:00 8.86667 C 74.2569 %
Sensor: Nr:Datum:Temp:Feuchte:
G-T/H 1001 20-01-2020 00:00:00 8.75 C 73.1111 %
1002 21-01-2020 00:00:00 7.77014 C 69.7847 %
1003 22-01-2020 00:00:00 7.17083 C 69.5903 %
1004 23-01-2020 00:00:00 7.63472 C 70.8611 %
1005 24-01-2020 00:00:00 7.71319 C 70.9097 %
1006 25-01-2020 00:00:00 7.96806 C 71.5139 %
1007 26-01-2020 00:00:00 7.98611 C 72.6597 %
1008 27-01-2020 00:00:00 8.21875 C 74.7500 %
1009 28-01-2020 00:00:00 8.85833 C 75.1458 %
1010 29-01-2020 00:00:00 8.44306 C 74.0000 %
1011 30-01-2020 00:00:00 8.61389 C 74.8750 %
1012 31-01-2020 00:00:00 10.32431 C 76.3958 %
1013 01-02-2020 00:00:00 11.40556 C 76.3681 %
1014 02-02-2020 00:00:00 11.15903 C 73.6736 %
1015 03-02-2020 00:00:00 11.4875 C 75.0000 %
1016 04-02-2020 00:00:00 10.54722 C 71.2847 %
1017 05-02-2020 00:00:00 9.47153 C 71.9236 %
1018 06-02-2020 00:00:00 8.34306 C 70.5208 %
1019 07-02-2020 00:00:00 7.79097 C 69.9167 %
1020 08-02-2020 00:00:00 7.33681 C 70.6528 %
1021 09-02-2020 00:00:00 8.3 C 73.5694 %
1022 10-02-2020 00:00:00 9.82708 C 73.9167 %
1023 11-02-2020 00:00:00 9.18194 C 72.2431 %
1024 12-02-2020 00:00:00 8.72083 C 72.8750 %
1025 13-02-2020 00:00:00 8.20208 C 72.5208 %
Sensor: Nr:Datum:Temp:Feuchte:
G-T/H 1026 14-02-2020 00:00:00 8.84653 C 74.7500 %
1027 15-02-2020 00:00:00 8.93958 C 73.5903 %
1028 16-02-2020 00:00:00 11.3125 C 68.1111 %
1029 17-02-2020 00:00:00 11.77708 C 69.2778 %
1030 18-02-2020 00:00:00 10.43056 C 67.4028 %
1031 19-02-2020 00:00:00 9.94514 C 69.4583 %
1032 20-02-2020 00:00:00 9.73472 C 71.6875 %
1033 21-02-2020 00:00:00 9.56875 C 71.4931 %
1034 22-02-2020 00:00:00 9.25625 C 72.0625 %
1035 23-02-2020 00:00:00 10.38403 C 73.7708 %
1036 24-02-2020 00:00:00 10.40903 C 71.9792 %
1037 25-02-2020 00:00:00 10.88819 C 73.0278 %
1038 26-02-2020 00:00:00 10.02917 C 68.9306 %
1039 27-02-2020 00:00:00 9.17986 C 71.0208 %
1040 28-02-2020 00:00:00 8.31042 C 73.7708 %
1041 29-02-2020 00:00:00 9.28125 C 75.1597 %
1042 01-03-2020 00:00:00 9.80486 C 74.3403 %
1043 02-03-2020 00:00:00 9.67847 C 73.5833 %
1044 03-03-2020 00:00:00 9.53681 C 73.3194 %
1045 04-03-2020 00:00:00 8.95833 C 73.5139 %
1046 05-03-2020 00:00:00 9.15833 C 73.9861 %
1047 06-03-2020 00:00:00 9.48958 C 74.9514 %
1048 07-03-2020 00:00:00 9.38611 C 74.0556 %
1049 08-03-2020 00:00:00 9.99583 C 74.7292 %
1050 09-03-2020 00:00:00 10.54861 C 73.8819 %
Sensor: Nr:Datum:Temp:Feuchte:
G-T/H 1051 10-03-2020 00:00:00 10.28056 C 73.3819 %
1052 11-03-2020 00:00:00 11.72083 C 75.8889 %
1053 12-03-2020 00:00:00 12.29653 C 71.3333 %
1054 13-03-2020 00:00:00 11.08333 C 68.2014 %
1055 14-03-2020 00:00:00 10.32361 C 70.1250 %
1056 15-03-2020 00:00:00 10.87153 C 65.1667 %
1057 16-03-2020 00:00:00 10.71667 C 66.3819 %
1058 17-03-2020 00:00:00 11.47153 C 70.7292 %
1059 18-03-2020 00:00:00 11.42569 C 70.3472 %
1060 19-03-2020 00:00:00 12.36736 C 67.4583 %
1061 20-03-2020 00:00:00 12.53217 C 67.5944 %
1062 21-03-2020 00:00:00 11.55903 C 63.9097 %
1063 22-03-2020 00:00:00 9.66111 C 61.2292 %
1064 23-03-2020 00:00:00 8.67431 C 62.8819 %
1065 24-03-2020 00:00:00 8.04028 C 63.8611 %
1066 25-03-2020 00:00:00 7.80833 C 63.4722 %
1067 26-03-2020 00:00:00 8.04028 C 64.0208 %
1068 27-03-2020 00:00:00 9.19722 C 61.4583 %
1069 28-03-2020 00:00:00 10.48264 C 59.6944 %
1070 29-03-2020 00:00:00 10.14855 C 60.5362 %
1071 30-03-2020 00:00:00 8.62708 C 59.5417 %
1072 31-03-2020 00:00:00 8.58472 C 62.8194 %
1073 01-04-2020 00:00:00 8.20764 C 62.6181 %
1074 02-04-2020 00:00:00 8.18194 C 64.4097 %
1075 03-04-2020 00:00:00 9.17708 C 61.3125 %
Sensor: Nr:Datum:Temp:Feuchte:
G-T/H 1076 04-04-2020 00:00:00 7.05486 C 55.4306 %
1077 05-04-2020 00:00:00 9.21944 C 61.8056 %
1078 06-04-2020 00:00:00 10.2125 C 63.7569 %
1079 07-04-2020 00:00:00 13.11319 C 59.7083 %
1080 08-04-2020 00:00:00 13.17153 C 61.2847 %
1081 09-04-2020 00:00:00 13.65556 C 60.0069 %
1082 10-04-2020 00:00:00 13.73681 C 60.7847 %
1083 11-04-2020 00:00:00 13.3125 C 61.3611 %
1084 12-04-2020 00:00:00 13.45 C 63.2500 %
1085 13-04-2020 00:00:00 13.15556 C 59.7986 %
1086 14-04-2020 00:00:00 11.44375 C 58.7847 %
1087 15-04-2020 00:00:00 11.16875 C 56.8333 %
1088 16-04-2020 00:00:00 11.42917 C 52.3542 %
1089 17-04-2020 00:00:00 14.90625 C 55.3958 %
1090 18-04-2020 00:00:00 14.63333 C 62.5347 %
1091 19-04-2020 00:00:00 14.45833 C 64.6250 %
1092 20-04-2020 00:00:00 13.53681 C 59.6042 %
1093 21-04-2020 00:00:00 13.28819 C 58.7986 %
1094 22-04-2020 00:00:00 13.43958 C 59.4167 %
1095 23-04-2020 00:00:00 13.68125 C 59.6181 %
1096 24-04-2020 00:00:00 14.95139 C 52.1875 %

Maximal/Minimal-Werte vom 25.04.2017 - 24.04.2020

Sensor Min Max Avg
Temp
(Aussen-T/F)
-12.4 °C
27-02-2018  07:25:17
46.2 °C
19-06-2017  18:30:17
11.23 °C
Feuchte
(Aussen-T/F)
20 %
25-04-2017  00:08:17
78 %
23-11-2017  06:30:17
32.62 %
Temp
(G-T/H)
2 °C
27-02-2018  07:01:17
29.7 °C
26-07-2018  16:25:17
13.65 °C
Feuchte
(G-T/H)
25 %
29-06-2019  18:04:17
85 %
16-10-2017  15:03:17
66.62 %

Die Daten stammen von einer Davis Vantage Pro 2 Wetter-Station und werden unter Linux mit der Software wview2wettercgi und aufbereitet. Alle Angaben erfolgen ohne Gewähr für ihre Vollständigkeit oder Richtigkeit.
Kontakt: Rainer Krienke krienke@uni-koblenz.de . Meine Webseiten an der Uni Koblenz oder privat.
Version: $Revision: 0.78 $